GFSFLT2_con_mucape_000.txt.gz
CAPE
1278 1365 1256 1227 1124 1049 981 932 945 925 870 726 590 449 249 60 7 37 26 5 24 41 119 96 69 92 99 61 25 8 0 0
1855 1269 1296 1239 1019 933 836 743 759 805 805 654 434 309 259 205 202 60 215 184 156 221 203 212 198 162 126 107 66 0 0 0
1653 1659 1271 1197 911 751 735 761 686 673 666 548 354 89 28 54 157 310 290 294 271 313 364 321 250 144 69 83 60 0 0 0
1351 1281 1076 837 673 635 537 445 382 356 388 315 221 172 177 216 166 266 451 463 576 552 517 505 359 89 36 20 0 0 0 0
807 665 518 489 492 410 217 210 163 162 223 224 235 297 330 336 305 243 121 169 103 10 29 64 31 39 10 0 0 0 0 0
406 277 234 242 197 173 57 89 95 153 342 397 420 365 253 32 24 0 0 0 0 0 0 0 0 0 0 0 0 0 0 0
154 73 16 33 31 55 70 124 236 329 431 570 448 221 46 0 1 1 0 0 0 0 0 0 0 0 0 0 0 0 0 0
139 61 0 0 13 44 118 255 396 595 704 703 559 171 74 9 14 17 1 0 0 0 0 0 0 0 0 0 0 0 0 0
247 175 107 20 36 57 131 258 382 565 746 818 360 73 12 14 26 44 22 3 0 0 0 0 0 0 0 0 0 0 0 0
306 179 104 22 44 70 95 90 193 126 226 121 55 37 31 54 43 24 1 0 0 0 0 0 0 0 0 0 0 0 0 0
273 157 80 38 19 52 42 30 61 81 55 33 29 22 7 2 2 0 0 0 0 0 0 0 0 0 0 0 0 0 0 0
299 158 169 75 40 54 59 39 34 32 15 10 14 9 5 8 2 0 0 0 0 0 0 0 0 0 0 0 0 0 0 0
311 111 65 17 0 6 6 20 30 4 0 0 0 0 0 0 0 0 0 0 0 0 0 0 0 0 0 0 0 0 0 0
42 10 4 0 7 25 30 10 4 0 0 0 0 0 0 0 0 0 0 0 0 0 0 0 0 0 0 0 0 0 0 0
0 0 0 0 0 0 0 0 0 0 0 0 0 0 0 0 0 0 0 0 0 0 0 1 0 0 0 0 0 0 0 0
0 0 0 0 0 0 0 0 0 0 0 0 0 0 0 0 0 0 0 0 1 0 0 0 0 0 0 0 0 0 0 0
0 0 0 0 0 0 0 0 0 0 0 0 0 0 0 0 0 4 6 3 0 0 0 0 0 0 0 0 0 0 0 0
0 0 0 0 0 0 0 0 0 0 0 0 0 0 0 0 0 0 0 0 0 0 0 0 0 0 0 0 0 0 0 0
0 0 0 0 0 0 0 0 0 0 0 0 0 0 0 0 0 0 0 0 0 8 0 0 0 0 0 0 0 0 0 0
0 0 0 0 0 0 0 0 0 0 0 0 0 0 0 0 0 0 4 0 8 6 11 0 0 0 0 0 0 0 0 0

GFSFLT2_con_mucape_003.txt.gz
CAPE
1413 1401 1470 1195 1137 1105 1005 867 915 879 804 707 535 372 228 121 121 185 198 100 143 182 155 182 188 283 246 202 201 2 0 0
1377 1539 1454 1469 1513 1165 1038 911 815 781 699 593 374 335 292 277 269 133 321 395 327 401 362 360 343 370 224 133 155 2 0 0
1320 1228 1400 1601 1533 1248 903 783 716 694 588 485 329 348 323 339 211 323 487 397 463 608 572 490 387 276 122 112 62 12 15 0
1250 1620 1418 1401 1104 1055 872 663 476 449 428 533 520 547 533 467 463 343 463 445 627 496 380 336 318 267 168 14 0 0 0 0
1144 1076 1080 985 910 762 563 399 378 388 483 461 553 598 820 788 727 596 531 197 116 11 16 51 123 68 0 0 0 0 0 0
903 654 644 536 422 407 234 228 288 380 505 618 761 703 467 146 77 22 14 7 11 0 0 0 0 0 0 0 0 0 0 0
362 207 181 119 117 138 144 232 384 504 620 766 757 546 185 33 0 0 0 0 0 0 0 0 0 0 0 0 0 0 0 0
130 30 38 52 79 111 103 70 152 318 351 383 315 139 60 12 0 4 12 9 6 1 0 0 0 0 0 0 0 0 0 0
75 102 95 94 84 134 32 38 20 70 250 259 155 60 30 18 22 10 15 2 0 0 0 0 0 0 0 0 0 0 0 0
71 140 50 24 9 1 5 8 1 17 90 36 10 11 3 0 0 0 0 0 0 0 0 0 0 0 0 0 0 0 0 0
187 82 44 14 10 19 10 15 10 1 22 10 1 0 0 0 0 0 0 0 0 0 0 0 0 0 0 0 0 0 0 0
203 89 68 38 12 8 38 0 0 0 0 6 3 0 0 0 0 0 0 0 0 0 0 0 0 0 0 0 0 0 0 0
197 64 82 2 0 0 0 0 0 8 0 0 0 0 0 0 0 0 0 0 0 0 0 0 0 0 0 0 0 0 0 0
305 90 11 0 0 0 0 0 0 0 0 0 0 0 0 0 0 0 0 0 0 0 1 0 0 0 0 0 0 0 0 0
24 0 0 0 0 0 0 0 0 0 0 0 0 0 0 0 0 0 0 2 4 0 0 0 0 0 0 0 0 0 0 0
0 0 0 0 0 0 0 0 0 0 0 0 0 0 0 0 0 0 0 0 0 0 0 0 0 0 0 0 0 0 0 0
0 0 0 0 0 0 0 0 0 0 0 0 0 0 0 0 0 0 0 0 0 0 0 0 0 0 2 0 0 0 0 0
0 0 0 0 0 0 0 0 0 0 0 0 0 0 0 0 0 0 0 0 1 8 4 3 0 0 0 0 0 0 0 0
0 0 0 0 0 0 0 0 0 0 0 0 0 0 0 0 0 0 0 8 16 5 0 0 0 0 0 0 0 0 0 0
0 0 0 0 0 0 0 0 0 0 0 0 0 0 0 0 0 0 0 11 13 21 0 0 0 0 0 0 0 7 20 17

GFSFLT2_con_mucape_006.txt.gz
CAPE
1061 998 952 1101 1035 946 813 851 900 829 696 556 339 176 128 110 143 203 187 104 112 167 156 227 237 257 177 107 91 17 0 0
1357 1244 1230 1168 1246 974 860 807 802 768 568 419 309 301 231 264 123 240 288 307 327 362 494 551 444 432 202 105 72 101 0 0
1006 1085 1106 1037 1070 1114 802 768 676 545 466 351 206 262 297 201 164 273 492 516 545 624 486 362 332 363 87 26 46 0 0 0
1234 1205 1054 1113 814 761 538 322 192 175 352 581 407 810 823 601 407 456 477 326 472 58 7 63 131 17 0 0 0 0 0 0
988 944 922 867 620 386 112 68 216 474 724 853 894 1038 1079 735 431 290 326 50 91 6 4 0 17 0 0 0 0 0 0 0
801 622 711 641 203 137 258 317 571 692 946 1090 1196 1117 1115 481 301 198 208 59 9 1 0 0 0 0 0 0 0 0 0 0
596 481 426 325 316 464 587 726 854 961 1140 1212 890 319 331 401 300 79 1 2 6 7 0 0 0 0 0 0 0 0 0 0
412 248 358 587 769 867 429 286 311 618 952 575 194 180 35 117 35 12 17 27 23 6 0 0 0 0 0 0 0 0 0 0
392 487 666 489 344 303 182 57 70 145 388 418 225 83 12 10 16 30 17 0 0 0 0 0 0 0 0 0 0 0 0 0
375 436 445 276 93 0 2 22 25 29 21 27 41 42 2 3 0 0 0 0 0 0 0 0 0 0 0 0 0 0 0 0
602 437 76 9 16 5 1 2 14 18 23 8 0 0 0 0 0 0 0 0 0 0 0 0 0 0 0 0 0 0 0 1
598 353 287 402 157 2 25 34 8 7 5 0 0 0 0 0 0 0 0 0 0 0 0 0 0 0 0 0 3 0 0 8
670 458 307 364 76 39 0 0 0 0 0 0 0 0 0 0 0 0 0 0 0 0 0 0 0 0 0 0 0 0 2 18
598 456 377 46 9 0 0 0 0 0 0 0 0 0 0 0 0 0 0 0 0 0 0 0 0 5 5 0 0 0 0 9
615 215 1 0 0 0 0 0 0 0 0 0 0 0 0 0 0 0 0 0 0 0 0 0 0 0 10 3 0 0 0 0
26 0 0 0 0 0 0 0 0 0 0 0 0 0 0 0 0 0 0 0 1 4 0 0 0 0 1 0 1 0 0 0
0 0 0 0 0 0 0 0 0 0 0 0 0 0 0 0 0 0 0 0 7 10 3 0 0 0 1 0 0 0 2 0
0 0 0 0 0 0 0 0 0 0 0 0 0 0 0 0 0 0 8 15 30 6 0 1 4 1 0 0 1 0 0 0
0 0 0 0 0 0 0 1 0 0 0 0 0 0 0 0 0 0 9 44 5 10 4 1 8 0 0 5 10 22 24 27
0 0 0 0 0 0 0 0 0 0 0 0 0 0 0 0 0 7 15 11 7 7 62 48 24 20 13 23 35 37 34 42

GFSFLT2_con_mucape_009.txt.gz
CAPE
664 771 710 580 676 674 715 788 790 683 472 284 126 120 114 125 186 223 247 181 190 270 308 359 388 351 243 145 93 170 17 0
1070 1005 1043 1099 952 674 702 699 680 586 405 247 179 216 175 153 118 349 420 420 455 591 577 459 395 407 218 82 90 124 0 2
1046 929 907 891 969 835 689 722 635 474 423 257 220 390 272 187 204 345 489 453 461 524 132 72 161 387 430 72 81 0 0 0
896 936 855 951 568 542 334 107 99 163 428 361 410 505 347 5 140 394 458 308 324 303 73 173 111 3 27 231 0 0 0 0
832 956 823 635 419 183 51 23 171 506 679 547 760 500 660 437 301 340 368 242 183 78 62 49 23 0 0 0 0 0 0 0
649 539 590 441 149 56 72 444 525 552 815 814 819 598 565 457 400 480 286 218 90 69 83 22 0 0 0 0 0 0 0 0
453 440 421 382 337 511 712 946 934 1065 1088 1085 846 503 301 181 212 137 308 68 57 63 57 0 0 0 0 0 0 0 0 0
386 232 383 619 883 805 470 452 518 470 786 1081 778 452 268 139 95 90 48 47 28 1 0 0 0 0 0 0 0 0 0 0
399 701 802 752 580 340 226 119 84 217 552 920 1064 679 445 265 15 47 60 0 0 0 0 0 0 0 0 0 0 0 0 0
606 752 667 462 319 0 56 93 76 40 1 21 10 18 2 0 0 0 0 0 0 0 0 0 0 0 0 0 0 0 0 13
612 755 549 465 138 174 38 1 0 0 0 0 0 0 0 0 0 0 0 0 0 0 0 0 0 0 0 3 5 0 9 0
817 681 440 546 550 93 0 0 0 0 0 0 0 0 0 0 0 0 0 0 0 1 0 0 1 12 4 5 5 0 0 1
973 736 636 706 348 108 11 0 0 0 0 0 0 0 0 0 0 0 0 0 1 9 18 24 8 1 0 3 0 0 8 0
1019 826 727 280 76 10 41 16 0 0 0 0 0 0 0 0 0 0 1 0 2 10 25 19 1 0 0 0 0 0 0 0
924 700 273 23 5 0 0 0 0 0 0 0 0 0 0 0 0 0 0 2 0 10 7 16 5 0 0 0 0 0 0 0
525 144 3 0 0 0 0 2 2 0 0 0 0 0 0 0 0 0 0 0 1 3 6 12 11 7 9 5 10 13 0 0
46 0 0 0 0 0 0 0 0 0 0 0 0 0 0 0 0 0 0 0 2 11 29 27 21 31 24 12 2 0 0 10
0 0 0 0 0 0 0 0 0 1 0 1 0 0 0 0 0 0 0 0 10 30 34 30 33 19 1 0 14 18 16 25
0 0 0 0 0 0 0 0 0 0 0 0 0 0 0 0 0 0 0 2 19 11 21 24 31 22 0 11 28 36 44 43
0 0 0 0 0 0 0 0 0 0 0 0 0 0 0 0 0 0 8 16 10 20 57 77 66 50 32 47 52 48 46 45

GFSFLT2_con_mucape_015.txt.gz
CAPE
26 124 71 288 322 398 384 406 310 209 219 293 300 310 396 474 504 521 450 357 300 190 93 86 169 168 203 189 102 87 0 0
45 147 146 274 293 274 260 223 159 156 179 181 176 242 350 389 384 434 300 119 54 52 12 36 65 105 148 223 184 0 0 0
87 62 182 243 252 269 237 267 154 135 148 122 110 88 96 191 122 252 147 84 13 25 31 60 78 12 108 127 33 0 0 0
5 91 315 342 258 166 77 100 39 9 160 170 223 161 69 30 76 184 146 95 70 71 108 128 31 0 0 0 0 0 0 0
75 304 404 402 173 84 46 100 177 152 201 254 276 171 177 89 107 140 23 55 28 17 2 12 8 0 0 0 0 0 0 0
283 421 454 257 257 126 71 182 292 289 386 275 323 277 161 34 59 36 9 3 4 0 10 24 18 0 0 0 0 0 0 0
401 384 384 184 187 262 412 499 514 634 540 378 354 192 1 6 1 0 1 0 0 0 1 5 0 0 0 0 0 0 0 0
349 102 165 283 259 307 313 454 533 458 587 431 244 76 46 9 6 0 0 0 0 0 0 0 0 0 0 0 0 0 0 0
98 129 327 284 244 149 93 47 203 464 552 435 438 291 67 1 0 0 0 0 0 0 0 0 0 0 0 0 0 0 0 0
77 447 355 317 152 37 0 10 39 11 0 0 0 0 0 0 0 0 0 0 0 0 0 0 0 0 0 0 0 0 0 0
419 537 418 229 6 33 23 0 0 0 0 0 0 0 0 0 0 0 0 0 0 0 0 0 0 0 0 0 0 0 0 0
575 469 169 63 26 13 0 0 0 0 0 0 0 0 0 0 0 0 0 0 0 0 0 0 0 0 0 0 0 0 0 0
507 263 111 88 137 5 0 0 0 0 0 0 0 0 0 0 0 0 0 0 0 0 0 0 0 0 0 0 0 0 0 0
546 405 219 118 209 0 0 0 0 0 0 0 0 0 0 0 0 0 0 0 0 0 0 0 0 0 0 0 0 0 0 0
514 420 220 283 261 0 0 0 0 0 0 0 0 0 0 0 0 0 0 0 0 0 0 0 0 0 0 0 0 0 0 0
632 556 442 371 19 0 0 0 0 0 0 0 0 0 0 0 0 0 0 0 0 0 0 0 0 0 0 0 0 0 0 0
724 585 416 98 10 0 0 0 0 0 0 0 0 0 0 0 0 0 0 0 0 0 0 0 0 0 0 0 0 0 0 0
722 569 407 85 0 0 0 0 0 0 0 0 0 0 0 0 0 0 0 0 0 0 0 0 0 1 2 0 0 0 0 0
608 536 415 163 2 0 0 0 0 0 0 0 0 0 0 0 0 0 0 0 0 0 0 0 0 0 0 0 0 0 0 0
370 345 228 232 0 0 0 0 0 0 0 0 0 3 3 0 0 0 0 0 0 0 0 0 0 0 0 0 0 2 2 0

GFSFLT2_con_mucape_018.txt.gz
CAPE
67 13 55 184 226 294 340 269 175 198 223 267 295 312 359 425 454 459 346 210 54 20 31 41 64 95 168 135 0 0 0 0
0 21 1 105 254 272 212 208 149 182 224 221 210 265 350 385 326 279 185 4 0 3 29 19 46 150 137 53 0 0 0 0
2 17 132 136 251 192 201 182 108 124 169 148 56 45 49 66 32 60 39 3 0 8 33 77 0 15 27 0 0 0 0 0
17 17 145 171 176 123 50 59 24 33 67 101 74 33 16 16 55 25 23 35 47 12 41 0 0 0 0 0 0 0 0 0
0 53 98 149 84 32 15 6 104 124 150 179 97 26 65 55 61 13 0 0 0 0 0 0 0 0 0 0 0 0 0 0
58 113 247 190 36 3 28 34 132 260 220 175 164 139 80 11 0 8 8 1 0 1 0 0 0 5 0 0 0 0 0 0
39 184 306 156 18 18 73 243 322 366 286 214 184 116 3 0 0 0 0 0 3 0 0 0 0 0 0 0 0 0 0 0
246 284 347 124 74 76 180 334 435 422 398 324 263 25 0 0 0 0 0 0 0 0 0 0 0 0 0 0 0 0 0 0
374 314 317 148 175 390 491 484 369 353 271 165 85 98 8 0 0 0 0 0 0 0 0 0 0 0 0 0 0 0 0 0
123 177 206 229 287 282 299 201 244 331 269 186 83 8 0 0 0 0 0 0 0 0 0 0 0 0 0 0 0 0 0 0
303 306 284 244 226 146 15 30 4 0 0 0 0 0 0 0 0 0 0 0 0 0 0 0 0 0 0 0 0 0 0 0
354 324 265 225 135 33 13 0 0 0 0 0 0 0 0 0 0 0 0 0 0 0 0 0 0 0 0 0 0 0 0 0
482 497 414 319 24 22 24 0 0 0 0 0 0 0 0 0 0 0 0 0 0 0 0 0 0 0 0 0 0 0 0 0
648 644 500 217 10 7 8 0 0 0 0 0 0 0 0 0 0 0 0 0 0 0 0 0 0 0 0 0 0 0 0 0
707 542 248 123 99 48 20 0 0 0 0 0 0 0 0 0 0 0 0 0 0 0 0 0 0 0 0 0 0 0 0 0
671 407 220 113 100 184 95 0 0 0 0 0 0 0 0 0 0 0 0 0 0 0 0 0 0 0 0 0 0 0 0 0
648 529 418 145 243 358 71 1 0 0 0 0 0 0 0 0 0 0 0 0 0 0 0 0 0 0 0 0 0 0 0 0
607 684 588 391 393 283 29 13 2 3 0 0 0 0 0 0 0 0 0 0 0 0 0 0 0 0 0 0 0 0 0 0
722 793 662 479 319 219 18 19 20 0 0 0 0 0 0 0 0 1 0 0 0 0 0 0 0 0 0 0 0 0 0 0
834 768 718 532 398 277 131 66 30 0 0 0 0 0 0 0 0 1 0 0 0 0 0 0 0 0 0 0 0 0 0 2

GFSFLT2_con_mucape_021.txt.gz
CAPE
48 91 30 27 239 270 224 267 279 366 398 404 400 368 365 379 404 372 298 179 114 73 90 144 277 59 0 0 0 0 0 0
61 49 30 133 173 166 154 180 229 287 351 307 279 308 351 322 289 251 109 41 61 79 150 48 297 3 0 0 0 0 0 0
10 8 0 47 120 172 199 199 207 243 233 225 131 99 65 15 87 33 10 1 22 94 18 0 0 0 0 0 0 0 0 0
8 1 2 168 310 185 82 74 83 55 40 23 10 6 21 0 40 33 30 17 17 0 0 0 0 0 0 0 0 0 0 0
12 27 95 211 181 76 11 11 3 12 71 96 51 32 8 7 0 0 0 0 0 0 0 0 0 0 0 0 0 0 0 0
12 40 171 231 104 26 8 3 87 159 182 110 54 61 50 35 44 14 0 0 0 0 0 0 0 0 0 0 0 0 0 0
15 33 259 236 58 0 0 152 238 269 184 163 188 132 76 19 0 0 0 0 0 0 0 0 0 0 0 0 0 0 0 0
125 177 316 264 13 18 73 208 379 313 296 237 226 115 13 0 0 0 0 0 0 0 0 0 0 0 0 0 0 0 0 0
159 224 359 256 0 12 218 360 405 387 322 305 271 96 0 0 0 0 0 0 0 0 0 0 0 0 0 0 0 0 0 0
270 280 373 219 44 117 177 483 503 452 306 152 65 44 0 0 0 0 0 0 0 0 0 0 0 0 0 0 0 0 0 0
360 354 333 239 205 433 471 498 284 268 227 207 115 0 0 0 0 0 0 0 0 0 0 0 0 0 0 0 0 0 0 0
384 468 341 210 281 398 319 79 29 30 9 0 0 0 0 0 0 0 0 0 0 0 0 0 0 0 0 0 0 0 0 0
311 241 280 298 284 316 226 17 0 0 0 0 0 0 0 0 0 0 0 0 0 0 0 0 0 0 0 0 0 0 0 0
345 334 356 360 313 226 106 18 5 0 0 0 0 0 0 0 0 0 0 0 0 0 0 0 0 0 0 0 0 0 0 0
334 427 402 304 268 182 18 23 16 0 0 0 0 0 0 0 0 0 0 0 0 0 0 0 0 0 0 0 0 0 0 0
281 468 466 433 407 250 17 16 27 0 0 0 0 0 0 0 0 0 0 0 0 2 0 0 0 0 0 0 0 0 0 0
219 470 651 651 434 154 44 45 45 8 0 0 0 0 0 0 0 0 0 0 1 0 0 0 0 0 0 0 0 0 0 0
315 658 773 584 225 217 72 102 111 63 22 7 5 3 0 0 0 0 0 0 0 0 0 0 0 0 0 0 0 0 0 0
392 711 623 385 310 435 338 163 357 113 54 46 36 11 0 0 0 0 0 0 4 0 0 0 0 0 0 0 0 0 0 0
571 693 619 504 414 458 326 309 242 142 68 38 31 24 0 3 1 0 0 1 14 0 0 0 0 0 0 0 0 0 0 0

GFSFLT2_con_mucape_024.txt.gz
CAPE
125 59 21 163 276 318 318 380 475 551 555 524 512 475 437 440 404 392 342 282 217 257 437 130 12 4 10 0 0 0 0 0
47 71 59 1 158 222 239 283 338 377 408 372 303 337 388 314 278 312 237 197 243 170 222 32 0 0 0 0 0 0 0 0
36 57 13 0 148 223 250 300 264 275 255 237 104 100 78 1 61 86 82 64 121 40 0 0 0 0 0 0 0 0 0 0
7 10 5 7 212 152 51 94 76 75 76 60 37 11 0 4 24 91 64 47 0 0 0 0 0 0 0 0 0 0 0 0
10 3 14 2 166 127 44 33 7 9 12 4 13 21 0 0 4 6 2 0 0 0 0 0 0 0 0 0 0 0 0 0
0 0 69 127 101 15 0 0 0 23 54 61 45 11 9 15 14 10 0 0 0 0 0 0 0 0 0 0 0 0 0 0
2 0 68 167 96 0 0 0 0 55 68 20 24 61 58 44 18 0 0 0 0 0 0 0 0 0 0 0 0 0 0 0
0 0 141 256 54 0 0 4 117 213 199 106 140 74 67 34 0 0 0 0 0 0 0 0 0 0 0 0 0 0 0 0
0 0 196 294 69 0 48 190 377 317 214 222 197 108 91 0 0 0 0 0 0 0 0 0 0 0 0 0 0 0 0 0
23 129 242 335 92 0 20 220 339 286 310 255 269 254 37 0 0 0 0 0 0 0 0 0 0 0 0 0 0 0 0 0
162 165 245 317 78 21 150 334 380 374 408 350 176 53 39 5 0 0 0 0 0 0 0 0 0 0 0 0 0 0 0 0
228 274 295 289 119 138 137 366 450 482 199 90 91 71 20 0 0 0 0 0 0 0 0 0 0 0 0 0 0 0 0 0
268 340 314 365 234 269 403 446 394 129 114 90 43 13 0 0 0 0 0 0 0 0 0 0 0 0 0 0 0 0 0 0
332 441 493 472 293 272 360 293 34 17 7 0 0 0 0 0 0 0 0 0 0 0 0 0 0 0 0 0 0 0 0 0
419 411 349 362 214 231 309 263 55 19 4 0 0 0 0 0 0 0 0 0 0 0 0 0 0 0 0 0 0 0 0 0
513 370 248 236 285 342 333 218 32 7 10 0 0 0 0 0 0 0 0 0 0 0 0 0 0 0 0 0 0 0 0 0
614 540 353 316 384 368 265 231 104 25 19 6 0 0 0 0 0 0 0 0 0 0 0 0 0 0 0 0 0 0 0 0
592 524 395 422 423 330 249 308 122 56 54 38 37 19 6 29 53 14 0 0 0 0 0 0 4 0 0 0 0 0 0 0
494 533 343 282 366 306 282 315 187 187 78 133 52 56 57 38 34 19 1 1 0 0 5 3 0 0 0 0 0 0 0 0
444 498 371 194 328 335 237 225 347 224 154 100 137 95 37 38 60 30 2 13 14 13 11 4 3 0 0 0 0 0 0 0

GFSFLT2_con_mucape_027.txt.gz
CAPE
225 221 103 21 235 278 356 512 502 558 564 590 579 471 433 392 330 263 261 325 418 186 60 171 119 0 0 0 0 0 0 0
163 89 26 12 108 309 402 387 431 461 495 399 311 359 346 337 260 243 228 216 359 109 37 20 0 0 0 0 0 0 0 0
79 31 11 4 138 334 407 410 402 367 308 273 146 129 91 38 71 128 191 73 78 51 0 0 0 0 0 0 0 0 0 0
45 34 3 2 56 133 232 268 201 176 152 136 96 117 75 42 85 154 38 0 0 0 0 0 0 0 0 0 0 0 0 0
22 46 12 5 0 46 122 144 121 134 116 107 92 117 19 14 0 0 0 0 0 0 0 0 0 0 0 0 0 0 0 0
5 11 2 2 8 165 72 56 71 99 41 97 153 18 0 0 0 0 0 0 0 0 0 0 0 0 0 0 0 0 0 0
12 0 1 104 165 111 38 32 37 52 73 134 75 0 0 9 15 2 0 0 0 0 0 0 0 0 0 0 0 0 0 0
5 29 108 234 210 39 4 26 43 62 87 85 18 34 41 37 16 0 0 0 0 0 0 0 0 0 0 0 0 0 0 0
6 14 204 388 202 6 4 1 57 114 110 113 90 55 77 35 1 0 0 0 0 0 0 0 0 0 0 0 0 0 0 0
22 10 131 427 225 0 2 57 260 261 222 175 158 138 92 30 0 0 0 0 0 0 0 0 0 0 0 0 0 0 0 0
67 92 192 360 203 1 36 199 322 348 262 224 205 210 187 17 0 0 0 0 0 0 0 0 0 0 0 0 0 0 0 0
143 133 217 270 185 7 25 122 309 388 317 304 339 225 36 21 0 0 0 0 0 0 0 0 0 0 0 0 0 0 0 0
248 235 246 286 118 45 94 214 413 411 351 396 136 40 46 8 0 0 0 0 0 0 0 0 0 0 0 0 0 0 0 0
354 320 266 315 149 95 187 162 329 298 364 89 97 71 15 0 0 0 0 0 0 0 0 0 0 0 0 0 0 0 0 0
434 360 312 303 304 258 228 365 374 368 140 12 6 2 0 0 0 0 0 0 0 0 0 0 0 0 0 0 0 0 0 0
418 337 304 406 387 459 342 365 335 78 24 0 6 0 0 0 0 0 0 0 0 0 0 0 0 2 0 0 0 0 0 0
538 460 374 505 510 509 285 260 271 113 76 31 12 12 2 0 0 0 0 15 36 40 4 0 7 3 0 0 0 0 0 0
572 589 452 480 249 301 245 261 291 182 153 68 26 31 31 1 9 19 56 17 37 11 3 8 6 0 0 0 0 0 0 0
567 635 558 582 454 262 178 282 346 291 206 176 88 49 72 45 46 48 42 45 51 13 3 3 0 0 0 0 0 0 0 0
716 661 630 620 622 439 372 385 317 194 81 99 142 73 52 86 81 57 56 43 9 8 1 0 0 0 0 0 0 0 0 0

GFSFLT2_con_mucape_033.txt.gz
CAPE
615 363 443 344 277 316 389 529 658 717 754 640 460 397 411 413 341 296 355 348 350 239 114 13 0 0 0 0 0 0 0 0
368 453 82 384 328 358 433 520 611 572 439 353 330 340 382 367 348 294 298 363 310 94 9 0 0 0 0 0 0 0 0 0
409 303 31 78 184 427 562 610 424 373 334 237 146 121 108 151 324 360 249 196 130 25 0 0 0 0 0 0 0 0 0 0
230 156 36 3 0 17 68 77 143 220 137 221 140 270 299 133 223 206 94 7 0 0 0 0 0 0 0 0 0 0 0 0
174 198 134 7 2 0 84 167 243 301 373 311 361 371 283 277 97 9 0 0 0 0 0 0 0 0 0 0 0 0 0 0
55 21 2 3 3 29 121 105 186 249 265 311 457 401 488 442 219 47 13 0 0 0 0 0 0 0 0 0 0 0 0 0
35 17 6 4 3 5 63 103 139 163 292 306 286 370 445 272 207 62 2 0 0 0 0 0 0 0 0 0 0 0 0 0
18 29 22 12 1 1 59 185 96 167 248 252 208 212 418 216 161 14 1 0 0 0 0 0 0 0 0 0 0 0 0 0
17 24 15 3 7 0 33 61 140 177 167 599 370 173 314 232 146 42 0 0 0 0 0 0 0 0 0 0 0 0 0 0
0 0 11 16 49 88 141 126 123 107 302 604 586 402 330 243 142 42 0 0 0 0 0 0 0 0 0 0 0 0 0 0
18 73 13 73 242 214 120 181 194 237 748 909 686 475 284 261 152 32 0 0 0 0 0 0 0 0 0 0 0 0 0 0
86 183 158 149 356 344 109 15 126 358 712 777 765 504 274 260 130 0 0 0 0 0 0 0 0 0 0 0 0 0 0 0
55 110 193 377 402 285 49 15 163 551 784 845 697 464 254 197 79 8 0 0 0 0 0 0 0 0 0 0 0 0 0 0
220 189 301 379 258 258 30 64 163 547 1029 793 708 577 226 144 109 0 0 0 0 0 0 0 0 0 0 0 0 0 0 0
400 397 434 548 427 280 39 40 360 482 690 778 755 534 244 95 63 0 1 0 0 0 0 0 0 0 0 0 0 0 0 0
535 504 485 532 531 333 107 228 294 561 691 702 602 538 290 77 13 3 0 0 0 0 0 0 0 3 0 0 0 0 0 0
728 609 627 649 728 640 463 438 477 538 691 730 561 597 227 48 7 11 7 17 0 0 0 0 0 10 1 0 0 0 0 0
1040 710 639 715 861 942 1264 886 768 769 1171 703 573 259 35 44 30 30 27 34 34 1 0 0 0 0 3 0 0 0 0 0
1179 951 869 887 1042 1104 1288 1028 1117 1088 960 644 129 21 23 35 36 52 26 12 21 3 0 0 0 17 0 0 0 0 0 0
1525 1300 1219 1128 1503 1348 1467 1116 1179 1466 1034 534 55 28 30 42 0 4 41 40 17 4 1 0 2 0 0 0 0 2 0 0

GFSFLT2_con_mucape_036.txt.gz
CAPE
323 418 568 498 487 566 620 692 807 883 863 709 605 461 394 558 651 516 441 340 240 175 66 0 0 0 0 0 0 5 0 0
87 75 238 298 365 475 541 611 570 418 397 332 298 338 350 348 389 419 391 282 172 32 0 0 0 0 0 0 0 0 0 0
79 119 59 150 187 335 361 483 349 284 247 234 113 89 58 174 291 394 371 221 93 0 0 0 0 0 0 0 0 0 0 0
224 112 60 85 33 145 169 206 170 100 64 136 149 192 170 253 253 272 229 133 30 0 0 0 0 0 0 0 0 0 0 0
105 152 23 17 69 0 28 72 173 203 226 205 270 217 209 198 88 38 3 1 0 0 0 0 0 0 0 0 0 0 0 0
141 76 118 2 7 2 0 23 139 299 252 361 415 355 299 149 76 51 0 0 0 0 0 0 0 0 0 0 0 0 0 0
84 83 61 48 8 11 1 46 128 170 333 371 403 336 394 235 167 66 0 8 0 0 0 0 0 0 0 0 0 0 0 0
55 14 8 7 14 45 16 73 73 135 284 330 359 389 365 334 313 216 89 0 0 0 0 0 0 0 0 0 0 0 0 0
10 10 30 4 4 5 21 17 3 58 220 296 321 162 231 351 153 166 91 3 1 0 0 0 0 0 0 0 0 0 0 0
16 0 11 0 0 1 3 5 87 154 160 370 365 321 360 480 285 150 57 0 0 0 0 0 0 0 0 0 0 0 0 0
0 0 0 2 1 0 4 56 211 214 158 569 555 551 379 348 283 158 39 0 0 0 0 0 0 0 0 0 0 0 0 0
0 0 0 0 7 20 4 25 81 54 129 467 423 442 402 343 380 129 21 0 0 0 0 0 0 0 0 0 0 0 0 0
0 0 0 18 15 7 109 0 2 11 331 483 494 490 338 328 288 77 26 0 0 0 0 0 0 0 0 0 0 0 0 0
0 3 5 8 18 122 103 0 0 21 472 521 397 333 274 295 246 84 21 0 0 0 0 0 0 0 0 0 0 0 0 0
52 116 95 67 118 181 153 10 3 2 565 652 565 476 447 185 142 85 30 6 0 0 0 0 0 0 0 0 0 0 0 0
89 41 45 98 173 89 142 2 0 56 533 585 588 646 493 258 152 115 44 14 3 0 0 0 0 0 0 0 0 0 0 0
278 263 244 270 345 368 284 37 3 35 512 558 646 573 508 292 199 58 28 21 32 35 23 4 0 0 0 0 0 0 0 0
588 459 442 376 449 411 494 145 191 346 493 577 521 380 463 369 136 50 19 32 28 11 11 0 0 0 0 0 0 0 0 0
643 642 586 603 670 759 500 626 434 484 665 680 539 454 469 384 138 42 31 27 10 2 0 3 1 2 0 0 0 0 0 2
581 622 622 584 677 838 864 649 828 869 745 648 507 363 264 133 36 11 36 0 0 5 24 30 17 0 0 0 0 3 11 1

GFSFLT2_con_mucape_039.txt.gz
CAPE
309 232 477 232 231 528 746 791 810 851 726 701 740 834 857 702 608 492 336 237 125 20 0 0 0 0 0 0 0 0 0 0
185 123 147 214 284 522 616 605 455 339 324 229 237 474 630 510 400 342 242 184 86 0 0 0 0 0 0 0 0 0 0 0
107 105 82 124 131 368 500 456 229 178 136 56 32 87 152 212 325 308 227 112 34 0 0 0 0 0 0 0 0 0 0 0
46 25 14 18 50 148 262 124 48 13 5 9 10 62 92 205 278 258 186 97 37 12 0 0 0 0 0 0 0 0 0 0
74 16 21 0 34 5 76 73 14 23 46 46 88 105 74 87 124 89 51 11 0 0 0 0 0 0 0 0 0 0 0 0
105 10 55 25 1 1 20 22 28 53 89 110 104 99 61 47 13 0 2 4 0 0 0 0 0 0 0 0 0 0 0 0
2 4 3 23 9 0 13 15 68 107 154 169 174 117 68 44 12 0 5 0 0 0 0 0 0 0 0 0 0 0 0 0
7 15 16 15 5 9 0 26 52 33 153 162 201 194 100 50 80 54 1 0 0 0 0 0 0 0 0 0 0 0 0 0
7 3 8 11 5 9 0 28 16 24 86 170 144 183 181 200 177 102 26 0 0 0 0 0 0 0 0 0 0 0 0 0
0 13 9 7 4 1 5 0 0 3 9 64 113 134 153 159 112 75 3 0 0 0 0 0 0 0 0 0 0 0 0 0
2 1 9 1 6 4 0 5 0 2 0 1 91 179 114 163 94 76 0 0 0 0 0 0 0 0 0 0 0 0 0 0
0 0 1 3 6 7 10 0 0 0 21 91 161 180 202 156 138 93 12 0 0 0 0 0 0 0 0 0 0 0 0 0
0 0 0 0 0 0 0 0 0 6 7 202 246 200 351 258 155 167 35 0 0 0 0 0 0 0 0 0 0 0 0 0
0 0 0 0 0 0 0 0 9 0 0 61 229 258 292 270 156 116 68 19 1 0 0 0 0 0 0 0 0 0 0 0
0 0 0 0 0 0 0 2 22 0 0 39 194 270 219 128 181 147 92 48 2 0 0 0 0 0 0 0 0 0 0 0
0 0 0 0 0 0 0 0 0 0 0 130 198 237 104 71 206 152 160 57 10 16 16 22 11 7 0 0 0 0 5 0
0 0 0 0 0 0 0 0 0 0 0 185 220 180 243 283 156 98 93 50 30 35 5 1 8 4 0 0 1 1 0 0
0 0 0 0 0 0 12 17 12 1 0 272 269 307 340 359 232 191 119 65 51 32 15 0 0 2 3 1 7 0 0 0
19 0 0 0 3 0 19 21 84 98 19 82 445 488 394 345 359 222 151 114 64 51 20 0 0 2 10 9 9 5 0 0
77 63 46 22 55 78 51 59 144 153 59 191 355 270 333 318 311 279 146 133 82 46 40 0 37 35 24 15 5 5 2 9

GFSFLT2_con_mucape_042.txt.gz
CAPE
427 197 79 245 14 454 529 700 825 1050 1136 1183 1173 699 679 555 399 256 79 34 0 0 0 0 0 0 0 0 0 0 0 0
161 390 70 38 61 424 455 457 501 653 725 716 519 536 543 416 209 163 72 27 7 0 0 0 0 0 0 0 0 0 0 0
119 23 34 11 28 315 296 324 250 393 476 485 224 129 99 23 84 141 63 29 2 0 0 0 0 0 0 0 0 0 0 0
6 0 64 60 70 95 78 37 71 155 179 215 104 28 35 28 63 64 39 37 20 0 0 0 0 0 0 0 0 0 0 0
33 0 20 25 29 80 48 2 0 1 12 61 26 29 51 45 33 6 0 11 0 0 0 0 0 0 0 0 0 0 0 0
56 32 7 0 0 5 0 0 0 0 14 30 6 12 30 23 6 0 5 0 0 0 0 0 0 0 0 0 0 0 0 0
71 39 18 14 13 1 0 0 3 24 25 6 9 10 12 2 0 0 3 6 0 0 0 0 0 0 0 0 0 0 0 0
32 71 42 41 36 17 0 18 30 51 23 22 33 15 3 5 0 0 0 2 0 0 0 0 0 0 0 0 0 0 0 0
47 5 35 29 59 11 8 1 45 41 65 49 51 35 29 6 15 12 0 0 0 0 0 0 0 0 0 0 0 0 0 0
18 26 7 1 11 4 2 0 6 12 44 48 114 118 111 119 112 50 17 0 0 0 0 0 0 0 0 0 0 0 0 0
8 22 6 13 8 4 3 1 1 9 18 22 72 88 122 159 110 92 43 14 0 0 0 0 0 0 0 0 0 0 0 0
0 0 13 9 8 3 5 4 8 2 0 2 13 35 44 48 33 27 1 0 0 0 0 0 0 0 0 0 0 0 0 0
0 0 0 0 8 1 0 0 0 2 0 0 21 0 83 57 24 46 40 0 0 0 0 0 0 0 0 0 0 0 0 0
0 0 0 0 0 0 1 0 0 0 0 0 6 95 48 134 94 66 39 5 1 0 0 0 0 0 0 0 0 0 0 0
0 0 0 0 0 0 0 0 0 0 0 0 0 66 131 122 210 108 57 62 26 13 19 5 10 4 0 0 1 0 0 0
0 0 0 0 0 0 0 0 0 0 0 0 0 13 86 129 159 151 103 92 28 47 45 21 27 8 0 2 13 6 0 0
0 0 0 0 0 0 0 0 0 0 0 0 0 0 21 162 215 82 148 136 114 62 44 22 23 2 5 4 17 1 0 40
0 0 0 0 0 0 0 0 0 0 3 0 0 0 21 114 180 33 104 143 103 72 37 25 28 13 10 15 16 9 19 0
0 0 0 0 0 0 0 0 0 0 1 13 0 9 58 101 158 89 138 112 106 85 63 42 35 25 1 9 23 25 0 0
0 0 0 0 0 0 0 0 0 0 1 31 53 36 75 123 126 199 199 128 115 91 107 75 54 37 21 34 23 34 16 1

GFSFLT2_con_mucape_045.txt.gz
CAPE
451 331 258 108 36 28 327 908 855 840 853 783 696 324 181 143 15 0 0 0 0 0 0 0 0 0 0 0 0 0 0 0
482 320 123 14 30 95 363 757 885 1002 936 614 372 249 137 24 0 0 0 0 0 0 0 6 12 0 0 0 0 0 0 0
306 234 121 13 5 2 226 724 850 871 567 364 111 10 0 0 0 0 0 0 0 0 0 11 4 0 0 0 0 0 0 0
128 61 26 7 6 6 120 452 321 325 256 112 0 0 0 0 0 0 0 0 0 0 0 0 0 0 0 0 0 0 0 0
96 0 9 5 6 66 92 93 103 209 199 27 0 0 0 0 0 0 0 0 0 0 0 0 0 0 0 0 0 0 0 0
11 19 6 9 11 20 24 87 190 268 126 0 0 0 0 0 0 0 0 0 0 0 0 0 0 0 0 0 0 0 0 0
19 60 37 0 20 0 0 69 147 165 79 0 0 0 0 0 0 0 0 0 0 0 0 0 0 0 0 0 0 0 0 0
69 19 18 7 6 2 20 53 54 51 2 0 0 0 0 0 0 2 3 0 0 0 0 0 0 0 0 0 0 0 0 0
14 50 34 28 10 11 0 0 11 0 0 0 0 0 0 0 4 8 8 3 0 0 0 0 0 0 0 0 0 0 0 0
32 34 35 18 38 12 10 36 40 45 8 0 0 0 3 5 6 6 5 1 0 0 0 0 0 0 0 0 0 0 0 0
14 24 11 27 31 17 11 42 51 61 40 24 12 9 24 65 88 73 19 13 2 0 0 0 0 0 0 0 0 0 0 0
6 15 25 18 1 5 6 69 65 76 73 88 79 67 96 120 83 111 85 40 7 0 0 0 0 0 0 0 0 0 0 0
26 0 6 3 3 4 1 14 13 17 11 23 65 73 96 101 93 111 97 58 5 0 0 0 0 0 0 0 0 0 0 0
0 10 0 8 8 7 3 7 8 12 0 0 1 15 18 35 55 48 60 22 0 0 0 3 0 0 1 1 0 0 0 0
0 0 4 0 1 0 3 1 3 2 1 0 0 0 8 48 51 79 63 43 51 10 17 19 3 11 10 15 4 0 0 9
0 0 0 0 0 0 0 0 0 0 0 0 0 0 6 78 121 133 128 191 70 54 33 38 49 40 34 19 11 0 0 10
0 0 0 0 0 0 0 0 0 0 0 0 0 0 0 11 130 189 164 223 149 95 78 69 51 41 34 26 8 12 17 14
0 0 0 0 0 0 0 0 0 0 0 0 0 0 0 0 0 28 160 203 194 168 133 87 45 54 27 18 4 14 22 29
0 0 0 0 0 0 0 0 0 0 0 0 0 0 0 0 0 10 71 171 116 65 97 87 66 53 31 21 16 25 30 18
0 0 0 0 0 0 0 0 0 0 0 0 0 0 0 0 1 1 10 83 79 63 88 82 52 46 46 67 61 40 26 41

GFSFLT2_con_mucape_048.txt.gz
CAPE
624 509 493 283 67 4 100 313 596 774 674 570 459 296 177 102 1 0 1 189 92 19 0 0 0 0 0 0 0 0 0 0
212 394 169 100 40 7 11 150 279 656 680 569 359 238 104 0 0 0 0 0 0 7 3 0 0 0 0 0 0 0 0 0
354 315 136 31 77 60 4 25 310 555 658 400 202 69 0 0 0 0 0 0 0 17 29 2 0 0 0 0 0 0 0 0
318 225 166 74 69 18 3 5 164 375 362 257 111 8 0 0 0 0 0 0 0 28 28 16 0 0 0 0 0 0 0 0
161 183 130 71 25 21 0 49 69 228 260 185 60 1 0 0 0 0 0 0 0 0 0 0 0 0 0 0 0 0 0 0
28 89 87 36 32 11 5 3 15 117 199 95 46 18 0 0 0 0 0 0 0 0 0 0 0 0 0 0 0 0 0 0
63 46 26 0 2 6 16 24 41 110 114 78 73 9 1 2 0 0 0 0 0 0 0 0 0 0 0 0 0 0 0 0
92 29 17 1 2 10 0 20 72 78 85 79 27 4 10 11 10 1 0 0 0 0 0 0 0 0 0 0 0 0 0 0
22 69 15 9 2 1 2 3 4 5 77 74 27 14 9 14 18 13 3 0 0 0 0 0 0 0 0 0 0 0 0 0
40 17 15 7 6 6 4 4 2 16 57 83 29 8 3 7 13 12 5 14 15 3 0 0 0 0 0 0 0 0 0 0
36 25 35 16 23 1 26 28 22 53 101 67 34 17 3 8 14 10 7 12 17 33 4 0 0 0 0 0 0 0 0 0
2 27 15 7 27 31 56 70 78 54 65 46 38 27 16 15 26 42 17 27 46 63 14 8 0 0 0 0 0 0 0 0
0 6 7 14 12 27 4 0 8 14 58 89 79 62 57 61 79 82 53 47 88 72 4 1 0 0 0 0 0 0 0 0
1 3 21 18 10 9 2 4 7 78 116 82 141 117 109 103 119 98 181 97 112 81 24 11 0 0 0 0 0 0 0 0
1 0 0 8 9 2 5 1 1 0 43 68 51 83 71 39 73 93 142 112 104 77 30 14 5 1 3 3 2 2 1 3
0 0 2 0 3 0 0 5 0 0 8 9 3 7 6 6 10 47 88 73 95 122 89 43 13 13 32 23 32 34 13 0
0 0 0 0 0 0 0 0 0 0 5 0 0 0 0 0 2 5 79 101 98 156 153 94 54 61 41 41 40 38 20 9
0 0 0 0 0 0 0 0 0 0 0 0 0 0 0 0 0 0 3 106 165 209 178 153 130 58 58 52 86 42 33 28
0 0 0 0 0 0 0 0 0 0 0 0 0 0 0 0 0 0 0 3 38 91 125 134 145 113 50 59 53 37 32 46
0 0 0 0 0 0 0 0 0 0 0 0 0 0 0 0 0 0 0 0 1 12 60 115 113 59 66 64 51 38 51 53

GFSFLT2_con_mucape_051.txt.gz
CAPE
719 840 575 395 633 767 827 906 833 753 570 422 461 449 379 202 140 359 333 418 281 150 2 0 0 0 0 0 0 0 0 1
371 256 558 176 231 246 446 510 317 253 420 258 260 250 150 55 224 474 427 289 190 55 14 1 4 0 0 0 0 0 0 2
517 666 445 173 104 3 128 358 262 174 325 203 146 118 0 0 54 258 220 109 63 30 14 10 4 0 0 0 0 1 2 5
294 273 194 83 56 33 48 166 133 123 334 254 97 39 0 0 21 58 85 90 68 55 24 6 0 0 0 0 0 0 1 6
226 156 189 172 79 34 31 10 59 94 343 159 47 0 0 1 2 14 32 57 52 22 4 0 0 0 0 0 0 0 3 10
153 127 136 149 61 41 13 7 40 91 310 88 0 10 0 3 2 0 0 9 63 12 0 0 0 0 0 0 0 0 1 8
104 190 101 88 49 11 8 3 42 93 195 72 6 12 5 0 0 0 0 0 0 0 0 0 0 0 0 0 0 0 1 6
68 52 75 32 4 9 10 10 39 99 141 79 74 25 6 0 0 0 0 0 0 0 0 0 0 0 0 0 0 0 0 0
2 18 23 1 12 24 18 28 41 84 90 91 107 17 12 3 0 0 0 0 0 0 0 0 0 0 0 0 0 0 0 0
41 6 34 4 7 1 23 20 19 33 60 94 49 26 10 8 16 16 10 4 0 0 0 0 0 0 0 0 0 0 0 0
5 8 3 0 9 2 13 16 12 17 40 78 58 42 17 31 38 41 42 32 14 18 7 0 0 0 0 0 0 0 0 0
2 21 5 18 7 8 8 6 11 15 52 58 55 43 25 17 29 41 28 26 26 59 51 7 0 0 0 0 0 0 0 0
0 7 9 0 2 0 8 7 0 0 93 75 77 77 65 58 34 15 18 7 47 69 65 46 7 0 0 0 0 0 0 0
3 0 14 7 15 13 1 4 4 3 21 60 86 91 64 81 84 53 38 39 32 52 67 40 25 11 5 1 0 0 0 0
0 0 20 3 7 3 2 4 2 1 37 51 37 71 67 115 146 146 102 114 37 51 75 53 29 7 31 23 0 0 0 0
0 0 1 16 1 3 18 2 7 0 7 6 59 60 70 116 183 136 90 134 129 114 92 71 43 18 8 28 27 33 27 6
0 0 0 3 10 6 5 3 8 6 8 1 29 27 33 56 62 111 141 119 112 82 58 61 112 83 75 55 61 31 41 26
0 0 0 0 1 0 2 4 4 0 2 3 1 24 9 10 7 65 104 114 99 57 61 75 92 148 126 66 26 28 30 28
0 0 0 0 0 0 0 1 1 0 0 0 0 0 0 0 5 25 29 31 73 90 40 78 95 102 61 34 73 34 51 17
0 0 0 0 0 0 0 0 0 0 0 0 0 0 0 0 1 5 5 0 11 47 75 57 27 11 36 78 45 39 28 46

GFSFLT2_con_mucape_054.txt.gz
CAPE
1547 1401 1037 946 804 1115 1176 1102 1031 1019 1120 1150 1011 801 641 518 372 368 423 338 175 116 12 0 0 0 0 0 0 3 2 2
638 633 866 839 1009 293 698 851 831 778 875 748 569 520 291 300 299 511 497 305 148 111 28 0 0 0 0 0 0 0 4 1
446 154 137 355 304 248 637 663 561 523 537 390 305 294 192 112 105 413 351 132 101 99 26 0 0 0 0 0 0 1 3 2
564 100 233 219 109 89 54 215 377 257 112 181 326 335 141 38 347 312 211 100 103 74 22 0 0 0 0 0 3 3 6 5
582 234 255 61 5 11 6 89 30 13 9 93 238 225 53 243 417 286 173 53 8 9 0 0 0 0 0 0 4 5 10 8
305 305 169 145 45 59 42 97 64 35 18 94 405 192 169 143 142 156 108 52 34 13 2 0 0 0 0 0 4 7 19 17
83 139 157 148 156 116 49 36 20 32 85 171 206 147 140 61 107 129 127 141 94 45 17 11 0 0 0 0 2 2 16 15
88 73 77 71 127 83 10 26 12 67 80 182 104 98 101 24 33 12 29 97 89 23 15 4 0 0 0 0 0 1 4 10
13 74 94 74 68 15 12 12 15 93 131 184 92 63 79 63 3 6 6 10 18 1 6 0 0 0 0 0 0 0 0 3
51 20 3 13 0 2 3 15 43 82 139 132 70 16 63 51 9 6 2 2 3 0 3 0 0 0 0 0 0 0 0 0
43 36 6 1 0 0 7 7 11 37 138 96 60 21 4 26 8 15 28 10 6 0 0 0 0 0 0 0 0 0 0 0
8 1 17 2 0 3 8 4 3 35 64 122 94 32 41 38 16 34 53 27 27 1 0 0 0 0 0 0 0 0 0 0
0 6 3 1 2 0 0 12 0 0 2 75 174 58 53 70 32 56 51 73 73 52 43 27 0 0 0 0 0 0 0 0
0 2 0 3 17 0 0 0 1 3 5 50 135 171 60 88 64 49 46 101 146 128 93 44 40 19 0 17 7 1 0 0
0 0 4 14 8 2 6 0 1 1 0 68 144 190 114 104 114 103 85 87 127 194 187 164 175 57 56 110 94 49 79 0
27 5 0 4 0 0 0 1 0 0 0 29 93 168 150 115 133 157 204 151 131 207 215 206 276 198 21 52 102 159 144 93
13 16 0 0 4 1 5 1 1 0 1 0 113 155 146 107 133 208 274 346 302 354 300 302 289 483 163 159 45 46 26 22
8 17 0 1 1 4 3 12 7 3 0 0 0 31 132 180 173 268 303 292 361 490 467 398 372 306 388 308 231 149 74 27
6 7 12 21 1 0 2 3 4 11 3 6 7 2 27 35 111 123 120 159 224 258 369 427 429 407 377 343 242 202 171 105
0 1 6 16 4 0 29 28 61 19 9 1 3 0 21 17 42 66 56 73 94 119 138 215 262 391 396 388 312 275 148 16

GFSFLT2_con_mucape_057.txt.gz
CAPE
1894 1610 1256 840 610 585 376 916 1097 1203 1171 1142 1031 761 658 669 690 540 257 184 142 31 14 12 0 0 0 0 0 10 4 4
1429 1319 1159 804 1021 289 224 329 569 991 1074 963 873 709 690 585 419 435 251 205 133 34 8 14 0 0 0 0 0 0 5 3
734 874 883 751 596 307 372 322 327 766 970 641 591 611 579 320 267 370 227 79 53 3 5 0 0 0 0 0 0 17 19 7
470 526 440 438 366 110 203 171 213 445 747 621 215 253 322 247 296 265 118 42 0 2 0 0 0 0 0 0 8 29 23 7
302 137 80 197 56 250 157 861 619 300 84 2 0 198 274 352 430 365 61 1 0 0 0 0 0 0 0 8 10 25 22 7
297 169 63 75 65 119 81 56 69 22 12 6 58 142 278 443 307 211 22 0 0 0 0 14 0 0 5 13 19 35 22 8
105 161 190 31 6 33 22 99 35 34 11 15 51 171 241 386 309 221 65 87 1 3 10 5 2 4 9 16 27 38 21 8
50 87 96 67 0 8 14 50 23 23 18 3 53 183 205 310 319 290 188 170 69 20 32 4 1 3 7 16 22 27 42 13
44 11 75 43 34 63 68 29 18 15 9 42 126 182 265 393 369 306 256 242 158 57 16 3 0 1 3 3 8 14 17 45
2 39 16 24 23 33 68 23 15 13 5 113 156 168 224 284 164 130 84 152 83 31 0 1 0 0 1 0 1 3 4 6
1 3 4 0 16 2 20 25 19 10 44 144 171 126 88 114 28 85 92 81 59 13 9 6 1 0 1 0 0 0 0 0
0 0 4 1 0 0 21 26 4 31 73 110 79 59 84 117 102 187 77 40 15 6 60 8 10 1 0 0 0 0 0 0
22 0 0 0 0 0 0 5 1 14 83 89 107 69 72 110 69 190 169 98 69 135 13 3 1 1 0 0 0 0 0 0
5 1 4 2 1 0 0 1 0 7 27 120 122 145 63 95 110 78 156 151 261 227 168 34 5 2 0 0 0 0 0 0
0 0 7 0 2 21 0 20 2 2 0 29 108 163 72 78 119 144 167 239 327 333 239 200 92 61 68 70 82 59 92 33
19 0 0 0 3 2 0 0 0 0 0 3 45 137 114 52 130 253 293 229 352 426 319 297 341 253 157 67 331 261 221 59
17 3 1 1 0 0 0 0 0 4 0 0 67 130 75 101 193 296 327 314 371 405 440 463 378 367 343 270 229 242 288 206
16 27 0 0 0 0 0 0 1 1 0 0 11 93 154 125 186 241 346 468 498 437 436 529 549 474 428 351 300 193 181 250
6 10 27 1 1 0 0 0 5 2 3 4 0 0 30 121 198 182 324 414 453 252 379 590 626 648 539 546 405 276 336 325
9 2 8 24 0 0 0 0 4 1 8 8 4 3 2 62 212 305 399 481 525 403 451 457 271 387 660 455 569 241 385 385

GFSFLT2_con_mucape_060.txt.gz
CAPE
1926 1722 1353 836 746 575 314 60 99 727 1185 1116 984 756 724 740 827 582 439 251 144 62 3 0 0 0 0 0 0 31 0 0
1415 1370 1313 643 553 282 67 104 0 38 906 792 552 597 712 761 510 441 317 196 132 41 0 0 0 0 0 0 0 27 0 0
897 1131 1234 870 447 232 67 25 1 53 591 483 342 392 441 414 258 283 212 104 66 10 0 0 0 0 0 0 3 2 0 0
635 770 674 392 244 164 97 76 2 100 360 284 324 360 246 235 155 205 158 66 7 0 0 0 0 0 0 0 0 11 0 0
730 381 446 228 154 119 93 40 128 66 149 157 278 249 208 169 107 74 13 1 0 0 0 0 0 0 0 0 10 8 0 0
384 297 167 130 184 139 39 41 70 97 42 52 52 32 122 169 108 3 0 0 0 0 0 0 0 0 0 4 13 5 0 0
185 15 26 120 126 180 79 66 3 9 17 8 4 15 53 116 83 1 0 0 0 0 0 0 0 0 16 14 29 8 0 0
103 41 78 135 110 78 113 49 11 3 1 18 11 8 33 110 136 22 0 0 0 0 1 0 0 0 4 6 26 12 0 0
2 25 44 14 37 57 51 38 10 10 7 2 2 26 23 148 151 107 27 6 0 0 5 0 4 2 2 7 3 26 3 0
22 0 58 22 6 3 20 50 27 11 8 2 5 26 91 140 149 126 66 53 35 37 1 0 2 1 0 0 0 0 14 3
0 0 2 3 23 12 11 33 24 4 13 2 2 18 78 70 90 107 111 70 41 19 1 0 0 6 0 0 0 0 0 1
3 0 2 0 4 0 0 0 24 16 4 10 19 16 38 7 41 24 34 39 29 10 5 4 3 2 0 0 0 0 0 0
0 0 0 0 0 0 0 0 5 3 3 1 40 39 34 56 43 57 32 14 3 23 36 13 7 0 9 1 0 0 0 0
13 0 0 0 0 0 0 1 3 2 1 0 2 38 41 30 50 60 73 119 102 50 15 25 5 0 0 0 0 0 0 0
7 0 0 0 0 0 0 5 2 0 0 0 4 17 3 15 58 91 96 118 84 71 73 49 0 0 0 0 0 0 0 0
3 4 0 0 0 0 0 0 0 0 0 0 0 79 30 32 62 79 70 47 126 140 139 127 104 2 0 0 20 107 67 15
1 6 0 2 0 0 0 0 0 1 0 0 0 59 121 39 54 104 67 42 46 100 150 165 154 152 52 82 51 97 138 103
1 2 7 0 0 0 0 0 0 0 1 3 2 11 93 99 49 68 112 123 74 109 158 178 168 225 171 159 134 136 113 120
1 4 8 12 0 0 0 0 0 1 0 0 4 1 13 65 43 42 79 80 126 159 146 164 250 174 183 150 164 86 69 98
13 2 4 4 8 0 0 0 0 1 6 8 6 7 2 3 22 15 47 61 87 177 170 148 128 161 118 74 160 157 96 98

GFSFLT2_con_mucape_063.txt.gz
CAPE
1504 1137 985 960 895 782 550 491 230 293 393 1209 1068 844 817 819 840 677 504 270 151 77 41 0 0 0 0 0 0 0 0 0
1240 1115 994 874 492 555 459 245 265 37 55 104 546 372 637 675 600 546 362 184 124 82 24 0 0 0 0 0 0 0 0 0
585 906 917 728 619 381 209 133 83 28 8 29 373 381 381 324 337 337 202 80 49 7 0 0 0 0 0 0 0 0 0 0
434 632 773 687 566 216 124 92 61 21 17 10 248 279 208 224 186 176 99 40 22 0 0 0 0 0 0 0 0 0 0 0
265 468 490 517 276 127 95 57 43 39 127 98 192 251 196 66 66 53 21 3 0 0 0 0 0 0 0 0 0 0 0 0
321 326 276 349 180 95 39 12 38 14 40 115 130 218 82 38 33 28 6 0 0 0 0 0 0 0 2 1 0 0 0 0
166 224 178 75 59 51 37 35 23 35 53 28 59 78 49 29 6 3 0 0 0 0 0 0 0 0 0 1 0 0 0 0
65 37 146 149 29 16 2 38 21 17 28 19 18 83 25 10 0 0 0 0 0 0 0 0 0 0 1 7 7 0 0 0
188 228 52 95 37 12 0 9 6 3 1 0 0 8 2 13 0 0 0 0 0 0 0 0 0 0 3 5 3 0 0 0
68 127 83 77 26 14 23 0 6 13 33 5 17 4 1 36 5 0 2 0 0 0 0 0 0 0 4 4 2 0 0 0
5 57 50 33 39 25 25 16 9 36 38 12 7 1 1 20 26 1 23 0 2 5 0 0 0 0 0 0 0 0 0 0
0 4 8 34 5 4 5 19 24 37 32 42 16 11 6 34 44 31 48 36 31 29 12 4 0 0 0 0 0 0 0 0
2 2 5 6 23 25 31 1 21 34 42 19 11 4 7 34 35 43 25 67 51 23 25 0 0 0 0 0 0 0 0 0
0 2 4 2 5 0 0 0 0 18 9 3 12 3 8 4 5 23 18 47 43 35 12 11 8 2 0 1 0 0 0 0
0 1 3 0 0 0 0 0 2 0 1 5 3 0 6 11 1 11 22 13 10 41 16 11 9 5 1 4 0 0 0 0
0 2 3 0 0 0 0 0 0 1 9 2 2 3 2 11 9 1 1 2 49 27 13 3 0 4 2 0 0 0 0 0
0 3 3 0 0 0 0 0 0 3 11 21 1 1 5 11 0 2 4 25 71 20 8 1 15 6 0 0 0 0 14 13
0 1 5 4 0 0 0 0 0 0 2 0 10 5 3 0 0 5 6 1 13 85 35 17 19 69 40 0 0 0 0 25
0 0 1 3 3 0 0 0 0 0 0 0 3 13 7 2 2 14 39 18 0 30 91 67 51 42 102 106 53 34 43 57
0 0 1 2 3 0 0 0 0 0 0 0 0 0 13 9 4 1 16 56 79 76 81 102 100 61 100 116 87 74 80 74

GFSFLT2_con_mucape_066.txt.gz
CAPE
1299 1417 1504 1255 1276 1125 913 692 829 792 277 745 1160 989 930 1015 981 900 639 480 451 237 97 12 10 0 0 0 0 0 0 0
1029 896 1054 947 900 862 775 439 247 192 147 80 269 551 771 735 637 582 464 367 256 165 41 23 2 1 0 0 0 0 0 0
729 900 957 889 832 495 561 398 281 180 47 19 85 132 290 429 337 340 310 139 121 81 10 15 0 0 0 0 0 0 0 0
428 709 848 831 727 584 417 324 156 113 46 24 46 61 195 293 267 211 125 116 90 40 0 0 0 0 0 0 0 0 0 0
398 626 677 570 637 672 281 161 62 82 41 8 2 122 157 210 126 69 53 81 9 0 0 0 0 0 0 0 0 0 0 0
340 436 526 442 335 250 145 59 52 50 17 7 13 58 100 85 56 11 14 0 0 0 0 0 0 0 0 0 0 0 0 0
220 306 402 388 289 48 34 34 36 54 41 7 25 59 43 24 24 5 2 0 0 0 0 0 0 0 0 0 0 0 0 0
210 268 313 231 168 64 39 55 36 19 69 33 68 9 23 15 1 0 0 0 0 0 0 0 0 0 0 0 0 0 0 0
60 134 143 156 190 28 23 29 29 41 67 51 31 22 17 17 0 0 1 0 0 0 0 0 0 0 0 0 0 0 0 0
23 51 118 42 31 2 1 21 39 57 20 34 29 53 15 17 2 0 0 0 0 0 0 0 0 0 0 0 0 0 0 0
1 29 94 72 105 0 3 16 43 47 44 37 24 57 49 28 7 0 0 0 0 0 0 0 0 0 0 0 2 0 0 0
0 1 30 55 43 7 8 1 48 44 44 31 45 64 49 28 18 0 0 0 0 0 0 0 0 0 5 2 4 3 0 0
0 3 6 6 13 19 23 12 16 41 18 21 37 7 13 32 26 8 2 0 0 1 0 0 0 2 11 21 5 2 0 0
0 0 13 2 4 5 2 2 14 33 50 34 33 6 3 28 17 12 19 2 2 7 3 1 10 16 11 28 22 2 0 0
0 0 4 46 6 6 9 10 19 23 14 40 9 6 10 8 22 10 36 49 2 10 17 15 0 17 18 8 1 0 7 0
0 0 2 3 5 1 0 0 0 0 4 3 4 24 12 15 23 46 32 59 50 45 45 6 0 21 34 28 16 4 0 0
0 0 1 4 0 0 0 0 0 0 0 0 19 12 10 10 21 46 41 78 55 40 14 20 0 14 8 0 4 3 0 0
0 0 1 2 7 1 0 0 0 0 0 1 3 5 4 6 23 51 45 10 13 9 0 32 13 28 0 0 0 0 0 11
12 0 0 1 2 5 6 0 0 0 0 0 9 5 6 13 6 26 19 14 12 29 21 27 32 8 8 0 0 0 0 0
50 0 0 0 1 1 0 0 0 0 0 0 8 4 14 7 4 2 6 4 2 0 88 51 17 6 31 43 59 27 16 33

GFSFLT2_con_mucape_072.txt.gz
CAPE
1359 1910 1912 1517 1557 1192 802 858 1255 1393 907 947 932 1062 1119 840 1003 1096 1053 833 755 631 455 264 175 72 7 0 0 0 0 0
1220 1406 2376 1519 1052 875 822 424 364 566 374 191 128 302 440 494 677 666 849 617 537 491 265 216 109 17 0 0 0 0 0 0
1221 1483 1714 1388 896 563 408 380 458 435 347 163 156 196 170 189 175 523 583 324 372 178 160 151 31 0 0 0 0 0 0 0
928 1204 1331 994 865 702 451 402 421 390 139 54 73 107 129 101 107 192 159 173 98 53 138 60 0 0 0 0 0 0 0 0
746 771 709 582 564 621 565 581 518 220 95 55 36 8 95 85 44 64 121 97 18 0 8 1 0 0 0 0 0 0 0 0
499 519 602 525 541 473 456 541 517 437 322 49 35 29 83 19 40 37 60 48 9 0 15 15 0 0 0 0 0 0 0 0
344 598 819 829 390 442 311 397 372 272 173 70 55 46 39 10 56 55 61 30 0 0 3 0 1 0 0 0 0 0 0 0
500 629 707 599 398 133 313 409 351 317 124 95 58 47 51 43 46 43 62 16 0 0 1 0 0 0 0 0 0 0 0 0
488 418 539 389 54 43 127 213 185 196 104 103 79 61 51 95 48 43 60 43 0 0 0 0 0 0 0 0 0 0 0 0
188 439 434 315 83 36 65 184 329 66 152 74 51 88 101 99 41 54 30 79 0 0 0 0 0 0 0 0 0 0 0 0
314 410 359 248 41 42 46 20 174 39 40 47 46 79 103 76 35 70 60 50 10 0 0 0 0 0 0 0 0 0 0 0
251 360 433 44 0 63 58 50 5 83 18 9 18 55 56 77 22 82 58 2 16 0 0 0 0 2 0 0 0 0 0 0
90 23 260 4 1 146 17 1 27 10 5 34 48 4 46 50 79 83 19 0 0 0 0 0 0 0 0 6 8 10 0 0
78 35 48 59 3 58 4 0 47 7 55 60 43 27 17 51 66 67 0 0 0 0 0 0 1 7 12 17 2 1 2 7
59 7 36 45 37 243 40 0 2 8 42 35 59 30 44 56 52 43 0 0 0 3 0 1 0 12 23 8 1 1 0 4
69 27 35 1 55 21 2 0 0 7 3 21 54 44 36 38 42 14 21 5 0 0 0 0 4 0 1 18 9 0 0 11
75 39 4 1 38 9 6 7 0 12 3 1 41 42 54 39 13 26 34 1 3 0 0 0 15 6 0 9 16 11 10 0
84 51 9 1 13 4 6 37 5 1 1 8 22 25 9 47 35 8 7 12 2 1 0 2 59 37 7 37 40 46 50 26
76 76 30 2 1 4 4 7 8 6 4 2 4 7 10 0 19 20 15 5 5 1 1 0 40 54 57 54 67 57 63 1
86 100 54 1 0 1 4 5 0 0 2 0 0 0 1 3 14 8 19 12 16 3 0 4 42 48 71 80 66 65 78 53

GFSFLT2_con_mucape_075.txt.gz
CAPE
1630 1514 1687 1471 1393 1413 1196 995 998 1366 1294 1010 660 526 596 677 884 1072 1241 1142 1089 872 662 483 376 168 77 25 6 0 0 0
1643 1761 2030 1891 1870 1270 1091 878 615 624 472 355 228 138 156 330 510 909 830 941 695 655 473 366 221 89 22 3 0 0 0 0
1322 1915 1774 1924 1820 1134 814 613 634 404 451 196 139 183 98 102 159 301 620 466 397 424 349 210 116 39 5 0 0 0 0 2
1338 1345 1244 1869 1342 1020 1081 938 993 764 297 274 313 169 93 43 62 207 237 214 223 256 211 130 63 31 0 0 0 0 0 2
1117 1131 1659 1426 1036 896 694 831 983 583 369 269 250 256 110 109 64 110 84 148 276 252 180 98 49 12 0 0 0 0 0 1
962 930 1020 963 855 881 667 376 354 319 291 216 175 306 85 45 43 107 92 89 252 257 169 41 6 0 0 0 0 0 1 4
815 722 559 432 597 852 574 383 354 259 167 57 96 178 183 79 34 166 54 55 168 122 28 5 0 0 0 0 0 0 0 6
687 797 604 568 366 739 823 414 238 312 237 96 78 175 201 57 100 135 68 64 63 32 21 17 0 0 0 0 0 0 1 14
574 371 520 630 634 332 319 176 199 274 212 88 120 123 74 40 132 64 44 66 102 74 59 20 0 0 0 0 0 0 1 9
337 507 633 696 398 280 35 193 240 185 152 65 64 74 126 47 65 38 45 50 101 78 53 4 0 0 0 0 0 0 2 2
262 511 275 524 594 443 42 77 113 191 155 53 65 29 63 91 42 31 37 7 74 48 29 1 2 0 0 0 0 0 1 0
208 204 327 497 333 205 48 22 25 136 71 40 57 18 36 57 36 35 36 63 79 47 0 0 8 0 0 0 0 0 0 3
232 117 343 360 139 5 31 27 19 18 48 95 15 25 69 37 37 42 42 48 64 15 0 0 0 0 0 0 0 9 0 1
265 117 93 131 10 2 53 29 0 36 15 25 83 50 50 20 32 33 21 42 66 31 1 0 2 1 10 12 13 4 0 0
248 134 127 50 18 17 91 50 4 38 7 29 11 42 20 25 35 13 19 33 7 0 0 0 0 1 0 26 14 47 6 6
228 111 85 29 16 66 7 23 6 50 3 38 25 13 23 27 17 35 51 22 0 3 1 0 0 1 1 5 43 22 61 14
209 94 90 25 16 45 9 11 28 3 69 57 55 39 42 37 24 26 39 0 0 0 0 0 3 30 10 17 24 11 42 80
200 105 93 33 14 14 21 8 3 0 26 1 30 71 33 11 25 10 12 1 0 0 0 0 6 23 37 68 37 28 9 10
174 114 99 38 12 17 3 4 6 7 0 0 13 13 1 23 19 30 9 4 6 0 0 0 0 0 50 40 52 78 58 49
124 116 99 43 3 5 4 4 4 16 10 12 9 1 2 2 16 20 7 5 9 13 1 0 0 2 0 70 61 63 78 77

GFSFLT2_con_mucape_078.txt.gz
CAPE
2390 1888 1764 1335 1345 1463 1434 1601 1322 1167 1488 1169 922 646 862 703 688 820 1107 1038 1191 1126 923 721 532 349 319 213 96 54 228 143
1955 2092 1921 2099 2000 1207 1284 1110 996 972 920 532 353 351 335 260 221 429 554 972 1019 906 710 507 342 291 234 127 63 14 152 103
2283 2197 1936 2033 2196 1979 1270 1077 818 623 512 348 445 615 294 383 280 424 486 567 633 576 465 337 285 223 157 63 8 86 59 48
2341 1946 2279 1977 1931 2145 1991 1710 1243 1051 1047 881 1006 507 379 494 279 339 286 243 341 266 320 272 250 212 110 12 117 66 38 29
2142 2325 2209 2126 1877 1756 2042 1636 1394 1371 1173 842 859 555 328 78 151 396 296 195 298 246 282 386 335 250 172 146 78 65 35 24
1913 1717 1674 1724 1818 1530 1559 1605 1524 1481 1240 938 518 442 234 145 124 207 144 244 183 471 685 423 331 182 183 98 52 25 25 16
1853 1535 1258 1343 1478 1181 1372 1438 998 1068 1194 1102 574 382 424 328 334 233 98 137 117 590 350 291 250 225 173 100 23 19 14 6
1884 1540 1325 1369 1147 756 1137 1161 917 731 722 966 888 534 333 184 146 243 109 49 89 345 246 286 237 209 177 69 22 6 6 10
1812 1331 1052 1132 1132 570 900 573 810 691 542 568 325 246 319 125 105 158 90 44 71 234 244 201 181 165 136 67 7 3 3 9
1556 1022 1210 1211 730 611 626 778 640 397 255 273 179 189 258 200 115 78 45 51 57 185 172 161 154 162 124 37 16 12 3 10
1560 1141 1025 848 495 323 336 392 97 163 182 145 155 199 188 217 135 117 28 40 50 145 173 192 150 153 120 59 48 27 9 1
1470 840 851 652 440 151 317 151 56 57 119 121 35 70 91 75 161 28 33 26 6 125 194 173 180 165 54 76 76 53 32 21
1396 810 710 492 293 170 178 210 81 21 59 46 91 45 27 96 48 43 15 17 20 43 172 175 150 150 46 70 54 23 33 17
1278 926 512 392 264 210 179 19 50 107 75 49 85 185 90 3 40 12 34 15 23 97 169 154 148 134 96 81 35 40 27 27
1187 931 849 518 441 184 317 38 44 52 41 22 53 221 30 27 32 50 21 12 7 75 150 166 110 124 124 48 57 40 29 35
1165 1009 576 645 441 207 158 28 4 43 20 2 32 20 35 26 29 35 14 24 33 54 90 163 147 112 119 66 74 43 44 79
1210 981 514 519 290 133 116 31 38 54 17 0 10 7 8 14 5 47 11 12 90 161 118 138 117 109 85 123 123 109 118 77
975 719 341 392 305 150 62 12 43 111 26 30 34 18 11 17 39 38 22 9 51 76 26 38 80 81 73 72 104 107 108 108
395 560 194 149 179 81 70 66 66 31 64 15 53 6 24 14 23 10 33 43 38 48 22 20 32 64 116 121 131 143 122 105
178 313 132 118 80 51 69 39 11 16 49 91 78 32 43 49 23 10 8 11 9 7 0 1 2 25 91 128 150 134 132 122

GFSFLT2_con_mucape_081.txt.gz
CAPE
2625 2001 1618 1225 1403 1622 1774 1753 1647 1670 1856 1172 1258 727 642 500 721 748 889 699 1033 1100 1038 871 799 562 529 456 307 244 380 249
2684 2402 2338 2191 2016 1417 1427 1628 1562 1260 1359 994 869 643 447 352 317 222 254 543 678 927 724 688 520 412 375 307 194 105 231 79
2355 2310 2416 2398 2170 1891 1344 1288 1174 973 883 716 612 924 578 378 157 82 138 300 282 475 430 535 358 347 293 218 135 77 92 84
2831 2560 2521 2400 1888 2451 2091 2015 1627 1412 956 1107 1128 1168 604 135 39 0 219 276 370 291 273 311 231 204 182 148 159 188 64 83
2408 2414 2475 2389 1978 2411 2428 2048 1744 1852 1403 1423 1207 1266 508 540 121 274 424 426 546 177 143 495 458 349 204 155 145 48 56 78
2176 2480 2356 2180 1832 2403 2189 1934 1906 1705 1466 1289 1294 1160 715 481 520 502 485 574 308 211 291 670 297 246 205 124 104 39 51 70
2209 2252 2047 1913 1962 1952 2070 1956 1860 2001 1488 1341 1209 879 658 195 226 293 270 425 242 185 220 580 339 181 154 83 35 43 43 57
2168 2258 1876 1735 1624 1698 1871 1904 1724 1695 1435 1369 1094 1054 746 441 115 300 515 337 114 93 137 280 347 140 131 60 55 30 7 16
2234 2350 2003 1891 1761 1432 1378 1327 1416 1142 1182 1240 984 934 859 663 506 400 232 122 63 69 100 266 253 132 130 97 48 11 2 13
2227 2087 1887 1817 1570 1325 1027 1117 1324 939 1014 1029 853 628 706 186 133 142 150 70 69 70 85 272 149 140 35 69 33 9 7 10
2245 2047 1755 1767 1529 908 1055 852 602 781 767 732 586 466 361 271 267 54 58 69 66 37 68 280 159 93 38 59 50 21 9 8
2221 1982 1856 1654 1234 1022 737 553 653 538 509 297 432 426 168 334 109 42 46 26 52 19 75 188 146 119 32 53 88 47 19 18
2211 1947 1772 1463 1125 888 656 688 414 273 161 74 84 169 344 353 62 38 39 33 31 25 58 143 137 106 79 45 98 81 68 29
2125 1805 1610 1334 1041 717 494 460 575 421 290 187 48 61 186 33 55 26 17 33 44 30 56 92 153 113 35 54 60 49 50 31
2029 1751 1448 1184 937 658 432 174 295 210 298 372 143 269 242 192 27 49 62 33 22 14 13 78 104 106 124 55 39 32 36 53
1955 1747 1430 1183 946 611 454 346 107 312 223 251 200 146 255 142 31 35 23 17 17 2 47 76 89 116 137 140 94 31 48 55
1890 1693 1464 1181 1030 848 534 298 285 274 130 149 48 30 0 12 18 2 37 43 27 19 38 80 114 120 161 211 174 131 85 88
1790 1688 1463 1239 1187 791 471 300 266 325 158 126 17 12 2 2 26 11 17 31 11 21 41 107 141 162 179 160 141 122 102 84
1725 1641 1198 1256 1047 700 383 287 323 95 210 107 30 24 5 3 2 13 22 7 21 29 58 103 138 148 157 96 114 148 122 66
1579 1519 990 1123 1016 679 347 280 270 292 237 93 47 12 47 8 8 30 28 19 14 33 98 128 123 171 155 147 132 79 63 124

GFSFLT2_con_mucape_084.txt.gz
CAPE
2319 1677 1415 1364 1510 1600 1657 1692 1587 1907 1969 1888 1791 1383 984 831 611 372 205 368 639 759 997 937 942 775 666 527 417 327 285 401
2995 2340 1874 1693 1499 1374 1532 1687 1636 1697 1654 1582 1412 1012 785 547 423 35 162 232 315 636 651 824 637 548 516 375 230 159 151 237
3217 2804 2522 2439 2219 1555 1357 1463 1601 1332 1231 1132 961 990 621 527 233 224 255 117 141 372 390 463 476 462 395 284 160 103 167 76
2776 2531 2843 2751 1956 2026 1841 1760 1569 1437 1299 1081 1336 1147 691 473 239 127 152 90 135 201 212 280 251 250 296 190 155 137 61 62
2901 2407 2905 2784 2150 2510 2307 2048 1816 1606 1557 1358 1380 1203 675 332 75 7 67 162 178 184 150 165 240 187 203 161 165 117 43 49
3051 2403 2486 2532 2150 2169 2217 2282 2096 1741 1637 1297 1242 974 602 235 91 39 111 139 210 178 137 239 316 248 196 188 156 71 41 38
2391 2569 2524 2566 2540 2106 2349 2335 1787 1731 1695 1413 1147 1019 624 629 334 128 163 195 214 173 163 201 176 153 205 180 25 68 37 23
2416 2568 2529 2371 2093 2091 2100 2110 2150 1898 1693 1373 1103 924 690 558 479 328 186 217 206 122 124 122 96 77 87 46 22 46 17 6
2510 2589 2338 1981 1758 1813 1677 1866 1853 1762 1524 1310 1147 884 603 284 192 231 121 188 176 74 78 74 88 94 55 56 43 23 12 0
2435 2350 2086 1956 1711 1508 1309 1346 1563 1312 1359 1219 1082 776 589 352 147 165 271 146 67 41 40 75 83 70 56 27 8 4 0 1
2364 2370 2107 2143 1865 1371 1040 1336 1362 1154 1109 1293 902 685 447 369 248 229 80 48 56 42 45 70 70 54 35 21 10 0 0 11
2542 2266 1962 1943 1604 1303 752 965 937 918 719 578 595 521 376 344 127 88 44 40 29 45 41 25 43 22 22 32 27 1 0 5
2573 2149 1878 1802 1395 1003 741 527 725 398 312 195 366 341 321 146 102 58 10 31 39 41 40 39 49 28 7 34 34 25 9 10
2560 2153 1943 1777 1336 890 850 624 541 262 199 159 249 208 229 112 70 42 19 6 27 25 11 43 24 46 0 13 10 23 27 25
2416 2045 1971 1656 1247 1007 750 644 525 347 409 248 138 83 72 138 99 93 83 20 14 19 4 23 0 41 27 0 0 0 13 30
2282 2055 1819 1651 1304 936 636 400 396 215 279 232 185 167 131 142 31 24 27 29 26 31 4 14 43 3 44 21 20 10 0 8
2274 2009 1682 1461 1301 924 645 422 326 174 207 206 90 60 124 133 86 17 11 26 39 42 34 23 28 7 0 39 48 75 17 9
2257 1928 1604 1386 1300 926 802 502 291 201 131 79 175 51 0 23 15 12 15 1 28 42 23 21 24 39 47 55 72 86 81 38
2211 1911 1595 1464 1278 1223 805 735 349 274 135 80 166 22 0 9 5 5 8 1 8 35 4 9 28 5 29 67 81 94 85 84
1967 1832 1541 1431 1378 1088 767 497 232 229 206 65 3 9 2 11 0 2 13 2 9 31 30 14 17 11 38 76 86 94 76 64

GFSFLT2_con_mucape_087.txt.gz
CAPE
1412 1394 1521 1609 1644 1590 1705 2010 2167 2153 2121 2086 2059 1875 1527 1041 874 596 337 299 268 418 885 929 958 745 537 480 464 383 356 352
1581 1230 1276 1427 1499 1510 1554 1634 1493 1547 1736 1818 1943 1678 1143 863 749 574 483 181 110 164 519 718 782 540 454 409 377 344 285 250
2195 1369 1306 1241 1237 1350 1504 1602 1550 1636 1717 1689 1370 1412 929 903 649 372 239 7 137 204 219 447 301 375 342 284 213 224 196 167
2424 2066 1800 1671 1656 1308 1263 1443 1514 1333 1211 1105 1053 1039 838 726 530 261 178 133 166 143 162 173 154 270 270 196 111 102 134 140
2546 2298 2398 2232 2075 1695 1264 1239 1176 1110 1047 928 1178 884 663 619 501 261 92 109 55 88 108 125 166 209 220 176 58 36 95 143
2494 2304 2399 2269 2233 1786 1724 1635 1370 1218 1094 1011 1216 960 644 521 565 248 75 75 98 56 51 145 133 185 177 130 65 17 73 71
2561 2515 2350 2204 2098 2067 1932 2059 1790 1491 1290 1148 1100 984 716 511 381 258 119 68 88 90 58 146 178 145 119 86 41 19 51 38
2649 2661 2226 2081 1965 1903 1461 1967 2017 1659 1409 1133 1022 965 829 630 418 244 115 121 162 107 85 138 194 171 113 113 34 11 21 12
2559 2459 2229 1962 1952 1865 1776 1766 1696 1619 1394 1231 1087 1049 915 655 452 231 133 157 153 129 89 95 70 80 67 72 42 3 3 0
2492 2339 2315 2307 2031 1747 1499 1538 1720 1534 1327 1243 1072 943 876 748 619 346 185 190 130 107 72 57 34 42 37 36 27 2 1 2
2363 2304 2361 2159 1896 1579 1298 1311 1424 1545 1299 1166 1118 981 761 571 478 432 244 113 76 62 36 29 41 55 50 35 28 5 7 2
2124 2240 2211 1934 1784 1396 1152 792 1148 1223 1097 974 1025 850 710 550 386 283 193 92 84 39 11 20 49 26 84 26 32 17 3 5
2010 2185 2132 1836 1530 1459 1178 608 1627 1068 818 849 828 736 594 434 323 167 82 48 63 51 35 31 39 23 30 20 11 2 1 0
2046 2165 2123 1791 1519 1388 1239 787 534 577 752 606 562 493 431 374 254 158 103 74 29 34 8 26 37 27 0 18 0 0 17 7
2142 2170 1996 1846 1543 1350 1279 416 443 435 387 186 202 270 286 253 194 107 80 39 6 18 27 26 28 35 27 0 0 0 16 22
2150 2065 2023 1766 1521 1350 859 554 517 389 236 208 115 103 220 232 137 66 64 46 40 39 28 11 10 0 26 0 0 4 0 8
2077 2050 1925 1607 1437 1293 765 667 648 437 197 254 214 114 99 80 111 74 116 78 61 46 13 15 30 2 0 0 0 20 0 0
2102 1999 1824 1635 1390 1187 1010 695 545 445 209 214 168 123 123 110 114 79 61 52 46 53 24 18 8 14 22 0 0 0 0 2
2073 1930 1671 1604 1487 1207 1024 688 453 277 336 241 160 87 184 315 37 60 66 68 55 13 37 14 10 0 1 0 39 60 77 51
1970 1848 1560 1514 1355 1142 1002 659 455 286 251 186 60 67 32 7 0 2 14 9 20 12 34 37 23 21 2 35 33 60 65 41

GFSFLT2_con_mucape_090.txt.gz
CAPE
1332 1540 1653 1691 1749 1715 1779 1980 2049 2029 2031 2021 2086 2041 1856 1671 1534 1213 953 782 684 701 571 618 523 631 415 350 443 496 441 465
1234 1424 1588 1619 1595 1604 1778 1975 2085 2078 2048 1998 1979 1995 1813 1386 1144 930 724 684 596 533 333 338 385 307 310 374 428 412 397 346
1442 1273 1388 1463 1423 1475 1696 1854 1970 1956 1809 1775 1843 1943 1558 1280 998 785 513 425 414 348 177 115 140 211 233 298 354 292 304 282
1663 1175 1242 1375 1376 1415 1546 1615 1531 1633 1705 1813 1742 1626 1304 1146 995 835 638 276 179 255 186 123 158 122 150 231 234 202 223 203
2145 1677 1221 1274 1394 1264 1348 1491 1493 1462 1650 1505 1343 1322 1054 1089 1022 736 553 222 177 178 89 102 112 86 97 114 121 108 154 154
2377 2144 1647 1607 1823 1423 1117 1209 1327 1241 1096 1102 1069 1051 924 879 769 499 260 195 167 36 62 31 94 87 73 87 84 76 141 143
2472 2508 2238 2065 2122 1916 1362 1185 1047 1006 1010 977 987 883 751 577 632 471 346 242 168 53 3 89 114 99 67 107 38 52 127 124
2591 2591 2457 2283 2323 2110 1773 1560 1413 1134 1021 998 1023 853 730 583 614 604 509 388 262 62 21 43 150 132 74 89 36 20 118 91
2618 2590 2495 2185 2217 2180 1868 1918 1986 1594 1191 1137 1166 1017 891 790 613 571 456 496 262 178 26 64 110 111 67 46 50 32 68 45
2530 2443 2616 2153 2047 2151 1665 1888 1921 2034 1544 1257 1134 994 948 889 720 593 487 362 235 275 75 34 76 98 64 33 37 46 42 21
2306 2446 2612 2421 1834 1972 1807 1862 1748 1909 1566 1308 1138 1044 1010 936 743 657 517 348 611 601 62 52 84 81 53 52 19 32 11 0
2132 2286 2458 2506 1853 1784 1563 1683 1717 1456 1425 1324 1173 1017 983 910 705 612 542 377 222 257 60 68 57 58 106 60 8 6 3 0
1761 2164 2214 2368 1777 1740 1338 1248 1417 1467 1811 1295 1056 1010 925 852 634 667 582 416 234 158 69 63 37 56 86 40 9 5 1 0
1868 2009 2099 2285 1864 1752 1458 1003 625 707 1126 1049 941 972 795 817 678 526 444 375 405 144 70 6 23 56 39 22 0 0 6 0
1753 1804 1867 1833 1922 1565 1377 932 634 495 806 777 724 739 764 712 575 490 314 471 467 85 65 19 25 24 8 13 19 17 0 0
1703 1754 1704 1724 1957 1657 1312 1030 546 282 370 626 552 559 552 482 428 277 122 279 105 119 96 59 30 14 0 24 1 0 0 0
1698 1725 1649 1775 2001 1647 1358 1090 696 259 340 507 370 187 316 339 273 231 128 81 76 118 137 11 39 21 17 10 0 11 0 0
1694 1683 1605 1844 1827 1583 1429 1147 601 372 373 298 201 165 171 214 288 257 272 206 88 129 72 36 45 5 7 1 0 0 0 0
1722 1567 1613 1795 1702 1483 1347 971 524 523 400 312 227 274 190 138 128 110 49 32 136 88 97 69 48 24 3 2 1 4 10 0
1566 1277 1485 1734 1599 1383 1103 750 650 557 487 273 196 212 194 149 100 96 174 133 49 42 66 67 21 2 8 6 9 8 35 0

GFSFLT2_con_mucape_093.txt.gz
CAPE
1509 1692 1783 1853 1963 1998 1998 1940 1919 1893 1944 2062 2170 2079 1969 1916 1839 1748 1632 1085 995 953 890 844 842 732 652 421 642 563 523 493
1400 1542 1663 1714 1738 1776 1922 2049 1996 1955 1952 1967 2027 1918 1844 1752 1670 1548 1319 1063 957 930 740 597 507 362 378 240 454 503 485 475
1107 1399 1413 1545 1614 1683 1766 1965 2079 2040 2018 2006 1942 1913 1756 1592 1434 1327 1047 782 717 722 448 395 180 152 191 122 289 403 388 406
1011 1216 1395 1515 1344 1571 1749 1940 2106 2100 2038 2024 1955 1895 1821 1559 1245 1132 981 637 571 456 228 181 82 60 131 124 199 307 277 350
1273 1153 1248 1241 1301 1352 1560 1829 1943 1897 1709 1780 1837 1942 1714 1456 1299 1091 880 725 436 310 87 56 30 73 82 63 107 230 217 231
1667 1301 1120 1275 1238 1144 1270 1635 1608 1637 1702 1769 1850 1738 1380 1104 1074 1027 861 768 319 89 180 147 39 48 82 73 79 180 178 192
1911 1675 1302 1156 1197 1071 1010 1196 1313 1425 1508 1705 1598 1445 1601 896 1049 996 768 635 321 161 216 220 70 53 95 83 78 142 145 162
2278 2109 1941 1608 1409 1083 1007 1011 1094 1276 1230 1242 1151 984 1170 1162 796 968 497 287 144 144 156 90 28 61 96 88 60 89 144 152
2384 2381 2313 2134 1749 1521 1250 1070 1024 1025 1146 991 1181 1034 950 713 566 859 641 290 310 262 173 71 92 55 80 83 56 71 134 138
2192 2463 2492 2502 2086 1915 1829 1565 1318 1163 999 1004 966 903 750 654 577 421 396 416 406 305 213 12 65 113 52 87 51 51 81 110
1579 2413 2534 2735 2506 2104 2023 1941 1541 1559 1439 1184 1092 1110 1028 842 734 503 665 781 716 586 229 94 11 21 58 54 46 47 50 86
652 2200 2418 2610 2569 2078 2032 1990 1853 1974 2092 1843 1376 1269 1125 933 829 638 522 574 426 429 262 73 5 4 44 52 40 30 47 46
84 1971 2202 2322 2355 2103 1911 1814 1815 1827 2052 2084 1647 1330 1130 995 901 627 515 520 484 371 213 147 10 38 60 39 39 44 37 48
25 1671 2043 2162 2109 2138 1759 1657 1672 1520 1729 1786 1496 1319 1112 1011 888 639 1025 465 500 395 253 294 57 63 44 67 33 12 42 30
653 1486 1918 1956 1943 1939 1774 1474 1277 990 1324 1331 1420 1225 1008 928 832 412 404 503 606 671 431 182 33 60 55 25 40 3 0 13
652 1575 1804 1864 1840 1777 1669 1337 1033 937 1235 1084 1257 1094 1012 927 703 650 573 413 502 592 507 298 71 37 39 33 34 32 0 0
465 1667 1702 1702 1648 1593 1662 1395 940 703 522 593 1048 923 835 786 690 610 543 394 392 711 593 141 54 51 15 27 25 22 8 0
917 1648 1690 1487 1361 1445 1738 1447 970 773 520 409 723 666 629 625 570 358 313 288 81 387 337 174 209 58 59 23 14 0 30 19
1699 1756 1564 1299 1162 1338 1456 1379 1146 961 555 274 516 373 334 527 300 281 371 142 97 263 187 205 157 59 40 10 11 6 5 3
1824 1995 1580 1385 1063 1185 1449 1519 1280 948 577 276 306 187 159 196 537 311 157 180 234 184 195 125 73 77 49 18 10 15 3 1

GFSFLT2_con_mucape_096.txt.gz
CAPE
1659 1830 1901 1918 1930 1913 1932 1824 1825 1900 1979 2049 2219 2235 2104 2005 2004 2161 1988 1541 1439 1375 1128 1029 1050 1017 824 718 664 719 696 812
1668 2163 1930 1870 1832 1863 1875 1839 1848 1881 1932 1995 2056 2017 1988 1911 1864 1907 1701 1261 1250 1198 917 982 913 802 652 627 584 572 586 591
1911 2378 2262 2033 1813 1911 1911 1911 1929 1950 1954 1947 2016 1891 1891 1825 1765 1678 1547 1070 1030 931 770 669 562 591 509 322 256 216 210 328
1427 1919 1984 2157 1636 1749 1880 1903 1911 1920 1960 1983 1938 1892 1765 1693 1660 1585 1417 907 887 777 634 502 287 369 314 101 78 112 114 270
975 1199 1636 2074 1833 2060 1792 2294 2102 1961 1935 2017 2003 1896 1867 1744 1518 1387 1224 917 716 618 518 347 188 203 97 64 61 65 87 175
1142 939 1249 1633 1512 1669 1903 1902 2079 1852 1956 2043 2011 1874 1764 1818 1625 1376 1126 952 788 530 462 260 130 73 109 53 29 40 76 109
1821 1408 1174 1073 1126 1354 1268 1650 1943 1798 1824 1786 1779 1733 1995 1687 1491 1394 1203 956 828 478 312 102 98 96 114 36 26 22 41 68
1813 1892 1784 1512 1092 1080 1113 1398 1489 1572 1512 1639 1777 1861 2155 2120 1026 887 949 900 767 508 259 184 74 93 85 40 26 45 38 76
1052 1954 2040 1858 1458 1150 1076 1052 1158 1246 1247 1681 1956 1935 1538 1656 1464 1096 747 1021 616 482 47 91 158 102 59 70 48 82 42 111
0 1621 1858 2046 1942 1621 1451 1155 966 929 1054 1472 1848 1666 1150 1083 1136 1201 926 1074 416 82 77 176 101 66 20 53 81 75 51 58
0 1005 1843 1775 2175 2066 1786 1306 1092 951 914 1106 1592 1409 989 800 871 533 662 961 319 141 188 170 146 10 7 48 32 44 50 50
0 266 1733 2064 2083 2121 2024 1680 1334 1193 993 972 1390 1405 965 785 835 716 746 700 615 229 281 165 148 19 32 21 23 23 66 60
0 13 1569 2065 2217 2213 1969 1973 1718 1481 1309 1170 1096 1545 978 1100 1022 830 853 520 924 784 318 40 125 97 53 38 59 44 43 42
0 0 885 2043 2026 2032 1905 1866 1859 1700 1554 1371 1445 1396 1216 1248 1123 854 742 803 791 643 425 105 148 63 24 10 23 44 46 23
0 0 266 1793 2018 1968 1825 1696 1557 1826 1581 1314 1111 1420 1487 1320 1167 915 937 414 592 460 478 447 129 98 32 33 18 8 6 11
0 13 0 1709 1994 1851 1559 1564 1286 1242 1328 838 524 790 1416 1382 1181 1112 863 207 505 186 570 328 359 108 45 41 13 1 24 3
1 115 45 1490 1918 1719 1503 1488 1372 1244 1176 342 185 509 1015 1332 1067 797 700 229 382 247 254 419 405 159 208 83 69 37 13 20
92 485 541 1628 1760 1591 1345 1307 1393 1302 1125 574 319 842 753 1047 1167 725 477 494 503 271 251 545 541 203 183 185 46 30 2 11
189 991 964 1621 1553 1598 1287 1265 1285 1241 1044 959 887 904 598 1219 1173 864 708 538 435 226 237 130 279 263 138 68 91 52 12 18
183 834 1248 1703 1936 1797 1393 1305 1202 1159 991 692 571 534 400 915 706 572 568 228 149 179 78 54 163 183 91 134 153 75 30 20

GFSFLT2_con_mucape_099.txt.gz
CAPE
2113 2295 2157 1942 1980 1927 1858 1701 1708 1853 1977 2119 2199 2137 2152 2165 2204 2133 2325 2114 1857 1732 1500 1272 1278 1246 1059 912 955 998 1110 1462
1712 1877 2234 2232 2381 1973 1913 1741 1690 1759 1888 2026 2135 2017 1962 2022 2075 2088 2164 1826 1581 1507 1317 1156 1232 1210 1059 880 852 846 1072 1248
1668 2062 2231 2095 1978 2221 1948 1800 1743 1790 1885 1926 2138 2249 2274 2179 2069 2066 2020 1535 1387 1304 1216 1047 1112 1086 888 814 773 873 626 683
1814 2160 2480 2323 2154 1905 2301 2322 2254 2226 2254 2395 2400 2391 2322 2162 1911 1767 1738 1374 1150 1092 998 934 946 1341 1090 691 1207 783 511 447
1038 1488 2160 2437 2220 2018 2274 2102 2181 2031 1920 2101 2388 2472 2260 2203 2352 2112 2194 1333 1674 1124 1189 1271 1210 1239 1087 1041 598 461 283 340
1320 1132 1301 1625 2104 1240 2254 2294 2135 2635 2611 2408 2120 1980 2066 1955 1801 1892 2067 1612 1360 1614 1312 1308 1009 978 1038 789 339 274 167 217
1748 1333 1113 978 1398 1494 1998 1875 1808 1913 2436 2220 1984 2138 2262 1534 1520 1465 1599 1298 1103 1100 1009 1010 892 851 930 659 327 238 60 116
782 1701 1487 1290 1418 1197 1430 1666 1461 2160 2262 2035 2135 2395 2190 2019 2297 1924 1484 1261 1186 1004 816 623 693 635 457 286 291 213 17 40
0 697 1947 1626 1512 1596 1434 1315 1211 1310 1969 2230 2131 2341 2179 1939 2155 2042 1758 1229 1675 1153 711 503 343 616 584 202 258 47 22 11
0 0 984 1970 1884 1788 1721 1491 1247 1154 1722 2088 1797 2030 2056 2062 1993 1827 1162 800 1359 1250 743 516 274 106 90 111 425 49 14 45
0 0 0 1413 1922 2083 1927 1737 1472 1184 1255 1613 1543 1664 1790 1953 1680 1200 822 599 731 1245 617 337 68 163 170 211 130 65 35 63
0 0 0 257 1838 1998 2023 1762 1777 1754 1430 1129 1311 1328 1573 1739 1317 908 737 563 405 728 231 77 119 129 142 141 127 93 66 62
0 0 0 0 1807 1843 1485 1692 1559 1757 1601 1260 1213 1042 1187 1257 912 908 694 497 388 700 235 134 128 88 75 70 43 10 36 61
0 0 0 0 527 1860 1870 1472 1783 1826 1604 1273 1220 943 952 1086 1043 809 792 612 659 326 410 133 194 71 29 50 17 18 19 45
0 0 0 0 6 1657 2001 1804 1816 1997 1570 1423 1288 1060 1019 1370 1133 937 871 683 533 408 512 291 217 80 40 98 31 17 19 29
0 0 0 0 1 1186 1846 1508 1499 1750 1811 1450 1517 1149 939 951 1016 863 959 752 603 697 161 80 322 84 55 97 30 20 25 3
0 0 0 0 45 872 2113 1716 1990 2033 1890 1369 1373 1274 1035 433 1 353 790 824 738 302 110 259 201 198 72 67 31 54 36 11
0 21 25 57 357 953 1918 1802 1840 1843 1538 1324 1426 1100 619 98 57 346 849 962 757 393 208 202 186 368 167 148 21 46 87 17
0 45 71 359 640 1438 1798 1708 1683 1749 1559 1332 1168 665 181 135 331 636 881 854 797 383 148 246 147 292 192 107 79 127 67 64
8 76 197 624 905 1571 1547 1485 1568 1570 1505 965 807 592 538 361 439 709 830 566 347 510 166 258 171 153 281 121 137 127 133 113

GFSFLT2_con_mucape_102.txt.gz
CAPE
2625 2662 2309 1814 1825 1852 1797 1650 1692 1810 2090 2385 2590 2542 2363 2261 2364 2426 2421 2380 2209 2187 1789 1440 1391 1360 1246 1283 1324 1227 1442 1209
2651 2652 2545 2709 2526 1808 1794 1654 1635 1688 1854 2066 2233 2327 2290 2178 2235 2283 2315 2179 2051 1944 1683 1434 1328 1304 1176 1128 1239 1198 1435 1436
2301 2219 2343 2314 2704 2463 1868 1693 1583 1640 1785 1881 2157 2429 2695 2607 2332 2178 2270 2036 1960 1737 1578 1375 1249 1263 1212 1061 1049 1607 1723 1646
2349 2325 2165 2234 2520 2336 2598 2724 2453 2366 2286 2395 2431 2404 2574 2174 2114 2256 2165 1961 1751 1518 1415 1206 1202 1784 1483 826 1513 1251 1732 1262
2106 2412 2527 2470 2052 2121 2166 2546 2635 2763 2744 2753 2646 2634 2728 2548 2598 2564 2596 1882 2090 1498 1678 1690 1445 1542 1678 1305 1223 1240 1264 988
1731 2095 2376 2416 2316 2040 1998 2159 2350 2314 2752 2678 2956 2791 2685 2643 2398 2421 2519 2314 2086 2030 1740 1690 1694 1491 1444 1398 1177 1232 902 614
421 1599 2170 2255 2315 2039 2104 2026 2237 2303 2258 2339 2683 2482 2618 2488 2243 2399 2466 2158 2270 2050 1936 1781 1786 1524 1397 1235 1076 1141 801 565
143 218 1373 2010 2090 2071 1999 1931 2061 2018 1859 2056 2190 2348 2553 2249 2322 2238 2175 2158 2218 2058 1920 1879 1766 1498 1325 1141 1111 918 814 529
0 80 234 1324 1949 2020 1978 1800 1892 1948 1789 1996 2044 2485 2377 2268 1862 1834 2090 2053 2091 1925 1851 1722 1451 1210 1207 1055 962 763 612 570
0 0 0 89 1017 1595 2086 2093 2042 1908 1862 1829 1944 2226 2206 2215 1766 1827 1627 1706 1418 1242 1225 1089 924 1198 1109 1134 887 771 511 499
0 0 0 0 1 959 1584 2242 2401 2204 1956 1886 2115 2214 2178 2157 1836 1647 1569 1713 1613 1449 1267 1223 978 1110 943 743 655 527 443 178
0 0 0 0 0 60 1119 1461 2335 2335 2169 1950 2040 2386 2164 2036 1879 1702 1429 2102 1425 1156 1158 906 1146 573 307 170 298 485 317 111
0 0 0 0 0 0 567 1306 1934 1952 2259 2235 2087 2109 2123 1880 1729 1546 1748 1751 1143 1018 730 809 664 579 319 123 155 208 126 75
0 0 0 0 0 0 18 1027 1303 1596 1988 2631 2154 2087 2169 1831 1490 1294 1538 1228 1070 1113 758 436 643 468 135 104 135 96 135 91
0 0 0 0 0 1 0 726 1507 1762 1929 2402 2342 2214 1961 1702 1311 1273 1332 1464 1182 1141 775 492 265 241 211 209 94 148 28 30
0 0 0 0 0 0 6 159 1481 1703 1817 2146 2144 1834 1620 1438 1070 1078 1067 1218 955 1081 810 701 498 246 230 414 358 64 125 26
0 0 0 0 0 0 14 156 1833 1742 1921 1988 1969 1672 1504 1348 929 855 267 792 866 1040 1074 1132 908 382 240 237 277 204 312 100
0 0 0 0 0 11 0 481 1061 1979 1912 1850 1854 1775 1405 1314 1176 1180 809 661 705 589 800 1036 862 619 340 231 348 203 243 92
0 0 0 3 2 79 199 524 880 2249 1940 2074 1651 1972 1433 1370 1312 912 661 633 711 575 649 1124 861 607 348 180 121 102 156 41
0 0 0 57 170 292 498 1015 1388 2413 1999 1944 1644 1631 1789 1739 973 964 409 357 580 656 655 1220 972 926 382 248 145 90 384 34

GFSFLT2_con_mucape_105.txt.gz
CAPE
2865 2979 2082 1647 1682 1655 1641 1673 1906 2180 2458 2573 2689 2647 2516 2357 2444 2580 2715 2596 2440 2428 2205 1821 1486 1390 1384 1337 1342 1327 1426 1163
3113 3053 2692 2577 2334 1661 1599 1522 1579 1799 2109 2401 2591 2612 2443 2234 2297 2427 2539 2441 2356 2327 2167 1573 1380 1262 1235 1245 1260 1231 1520 1395
3194 2980 2966 2904 2804 2240 1688 1528 1485 1558 1742 1977 2408 2819 2913 2733 2377 2250 2331 2323 2190 2070 1910 1655 1305 1237 1171 1106 1126 1457 1215 1297
2726 2937 2711 2859 2725 2960 2505 2278 2056 2009 1896 2134 2340 2311 2593 2433 2385 2196 2199 2198 2061 1928 1798 1664 1513 1733 1619 1106 1408 1285 1724 1391
2428 2851 2740 2591 2594 2670 2790 2918 2674 2684 2613 2662 2477 2573 2805 2420 2495 2527 2763 2095 2413 2065 2089 2049 1782 1552 1888 1658 1401 1613 1498 1431
1843 2288 2766 3085 2979 2724 2813 2831 2886 2739 2703 3310 3245 2935 2971 2820 2166 2637 2856 2557 2415 2523 2345 2170 1968 1902 1830 1784 1790 1562 1327 1202
0 632 1871 2580 2797 2787 2718 2661 2629 2695 2732 2928 2669 2540 2927 2407 2379 2201 2545 2062 2613 2401 2123 2147 2117 1856 1855 1651 1585 1599 1456 743
0 15 354 1237 2128 2623 2575 2556 2476 2505 2437 2646 2707 2807 2871 2347 2351 2205 1965 2256 2840 2380 2332 2205 2215 2079 1954 1690 1657 1586 1327 1033
0 0 1 200 966 1790 2281 2304 2214 1987 2106 2523 2436 2591 3029 3008 2437 2531 2052 2223 2718 2600 2657 2404 2137 1803 1782 1873 1486 1631 1320 1041
0 0 0 0 15 207 1415 1590 2374 2107 2102 2435 2347 2410 2955 3130 2459 2259 2285 2189 2436 2466 2397 2392 2035 1965 1599 1454 1653 1457 1199 1035
0 0 0 0 0 0 213 1729 2096 2348 2402 2531 2644 2464 2432 2934 2619 2237 2411 2140 2266 2068 2126 2075 2015 1752 1523 1395 1411 1247 1196 830
0 0 0 0 0 0 0 113 1779 2181 2167 2759 2924 2867 2838 2932 2324 2359 2242 1806 2132 1653 1517 1611 1557 1623 1262 930 1035 1077 923 583
0 0 0 0 0 0 0 0 507 1539 1905 2363 2997 2824 2983 2687 2383 2443 2197 1651 2033 1542 1632 1760 1283 1337 1059 591 736 723 834 536
0 0 0 0 0 0 0 3 18 663 1683 2160 2644 2607 2678 2183 2308 2283 2157 1791 2059 1542 1828 1270 1217 975 892 741 339 141 175 389
0 0 0 0 0 1 0 0 17 218 1840 1971 2256 2785 2723 2176 2345 2381 2012 1849 1734 1505 1415 1046 932 810 816 495 388 144 51 127
0 0 0 0 0 0 0 6 0 14 1043 1675 2158 2448 2248 2326 2493 2120 1780 1810 1652 1509 1380 1224 1240 691 709 714 763 443 218 12
0 0 0 0 0 0 0 0 12 125 535 1823 2330 2565 2300 2347 2437 1943 1610 1694 1491 1311 1237 1359 1450 985 641 441 919 658 394 250
0 0 0 0 0 0 0 0 0 34 617 1616 2261 2636 2138 2064 1929 1732 1588 1802 1397 1280 1427 1672 1675 1362 1139 879 773 443 246 337
0 0 0 0 0 3 0 0 0 0 253 1206 2242 2406 1923 1646 1641 1692 1633 1459 722 244 573 1215 1555 1399 1205 1086 533 900 531 332
0 0 0 0 0 0 7 8 1 0 176 1176 1856 2225 2021 1443 1597 1856 1377 1273 912 1103 1442 1557 1340 1147 1195 1163 875 702 562 353

GFSFLT2_con_mucape_108.txt.gz
CAPE
3089 2394 1892 1570 1600 1659 1826 2042 2261 2330 2355 2407 2542 2452 2385 2307 2232 2427 2641 2619 2456 2346 2305 1979 1457 1390 1448 1427 1313 1193 982 1088
3667 3164 2405 2081 1774 1494 1559 1701 1924 2217 2368 2411 2427 2368 2305 2246 2092 2271 2469 2486 2334 2332 2253 1988 1599 1280 1305 1325 1271 1195 1043 1003
2973 3110 2686 2640 2361 1781 1403 1432 1505 1752 2045 2293 2440 2557 2371 2283 2149 2039 2307 2360 2258 2105 2087 1923 1555 1274 1195 1204 1195 1191 1180 951
2980 2707 2675 2750 2681 2347 1902 1777 1659 1705 1813 1997 2418 2539 2732 2535 2255 2010 2091 2197 2128 2014 1907 1839 1585 1428 1208 1152 1083 1278 1082 1047
2999 2841 2434 2670 2357 2717 2359 2102 1896 1932 1948 2095 2147 2213 2448 2244 2321 2030 2156 2013 2056 1903 1731 1627 1696 1748 1653 1374 1281 1333 1132 991
2847 2836 2764 2481 2389 2422 2913 2901 2376 2319 2219 2401 2449 2243 2322 2528 2145 2348 2371 2276 2136 1931 1870 1920 1837 1743 1598 1682 1531 1312 1316 963
0 600 2079 2741 2200 2402 2501 2449 2603 2600 2740 2645 2427 2475 2490 2418 2254 2175 2348 2265 2182 1978 1948 1951 1855 1677 1653 1541 1527 1358 1260 953
0 0 355 1224 2336 2216 2283 2403 2338 2709 2569 2587 2811 2792 2272 2269 2287 1800 2283 2010 2009 2000 1969 1886 1850 1658 1606 1524 1440 1386 1279 848
0 0 0 239 906 928 1979 2134 2221 2185 2379 2550 2331 2457 2645 2525 2367 2076 1784 2058 1633 2022 2049 2027 1838 1769 1627 1553 1396 1394 1318 1030
0 0 0 0 0 568 941 1307 2158 2202 2019 2258 2460 2264 2144 2329 2338 1936 2187 1923 2032 2206 2013 2023 1904 1811 1609 1615 1461 1393 1336 923
0 0 0 0 0 0 0 639 841 1830 2097 1956 2309 2092 1966 2205 2279 2140 2001 1827 1879 2094 1948 1911 1928 1660 1591 1343 1300 1283 1153 937
0 0 0 0 0 0 0 0 3 410 1346 2136 2103 2169 2060 2128 2254 2163 2079 1899 1824 2177 1923 1909 1792 1706 1465 1447 1219 1115 920 705
0 0 0 0 0 0 0 0 0 0 325 1221 2012 2115 2123 2007 2105 2071 1914 1850 1772 2003 1723 1627 1426 1311 1229 1150 963 807 727 628
0 0 0 0 0 0 0 0 0 0 0 207 1166 1593 1781 2036 2113 2032 1792 1555 1507 1778 1402 1276 1179 1126 939 860 727 361 355 575
0 0 0 0 0 0 0 0 0 0 0 0 451 1369 1712 1845 2089 2033 1659 1103 512 1514 1351 1156 1055 1029 1474 544 238 80 55 138
0 0 0 0 0 0 0 0 0 0 0 0 4 1453 1478 1822 1908 1847 1507 1129 1127 855 1267 1238 855 833 896 1001 572 385 140 62
0 0 0 0 0 0 0 0 0 0 0 0 0 44 1349 1654 1700 1740 1778 1295 856 1265 1149 1058 880 638 926 941 634 713 628 283
0 0 0 0 0 0 0 0 0 0 0 0 0 4 508 1282 1584 1926 1741 1489 1337 1130 411 914 1037 883 881 853 599 633 721 415
0 0 0 0 0 0 0 4 0 0 0 0 0 0 217 598 1380 1900 1835 1617 1263 1084 933 398 795 971 938 782 693 503 565 398
0 0 0 0 0 0 0 4 5 1 3 0 0 0 121 725 1030 1567 1536 1520 1514 1240 998 814 747 864 734 846 752 618 608 445

GFSFLT2_con_mucape_111.txt.gz
CAPE
2430 2213 1972 1652 1631 1716 2010 2167 2186 2081 2077 2212 2373 2292 2175 2072 2026 2122 2295 2415 2435 2311 2277 2023 1462 1242 1316 1388 1333 1223 1144 834
2705 2660 2552 2205 1502 1547 1767 1996 2140 2144 2112 2179 2325 2275 2153 2097 1982 2028 2237 2290 2365 2238 2073 1961 1571 1118 1126 1243 1267 1233 1149 1021
2911 2907 2290 2166 1648 1400 1521 1707 1951 2160 2235 2239 2346 2271 2193 2122 1992 1907 2098 2167 2243 2174 2028 1934 1668 1275 1019 1086 1127 1114 1084 1071
2193 2833 2512 2021 1984 1516 1291 1371 1534 1781 2062 2201 2260 2249 2202 2156 2022 1847 1882 2038 2190 2062 1932 1797 1582 1280 989 971 977 987 1091 1030
2191 2515 2581 2431 2398 2149 1608 1250 1242 1323 1569 1832 2158 2298 2464 2225 2151 1864 1833 1892 2035 1986 1861 1715 1557 1324 1117 949 881 895 996 1003
2520 2368 2166 2176 1894 2476 2407 1946 1338 1329 1373 1658 1644 2103 2228 2570 2314 2183 1799 1869 1788 1824 1774 1666 1469 1400 1295 1326 1217 1031 1039 1065
740 1472 1551 1696 1802 1980 2564 2355 2218 1835 1503 1554 1802 1618 1903 1912 2306 2261 2111 1914 1876 1739 1662 1558 1411 1489 1485 1264 1308 1258 1213 1102
0 0 44 794 1417 1651 1700 1964 2093 2256 2144 1926 1881 2030 1780 1968 2123 2109 2238 2101 1945 1795 1737 1631 1600 1530 1434 1454 1308 1168 1127 1120
0 0 0 272 313 1198 1228 1397 1493 1479 1747 2032 2069 2111 2363 1985 2175 2096 2046 2134 2002 1870 1643 1679 1801 1696 1571 1394 1229 1133 1065 1057
0 0 0 0 294 917 859 841 913 1164 1286 1540 1619 2027 2167 2445 2037 2014 1878 1947 1980 1890 1651 1602 1619 1596 1529 1389 1257 1137 1114 1042
0 0 0 0 0 0 484 792 814 994 1048 1379 1571 1727 1890 1922 2151 2249 2020 1845 1826 1724 1526 1535 1652 1518 1461 1326 1298 1224 1167 1085
0 0 0 0 0 0 0 0 5 699 901 1062 1345 1682 1967 1750 1569 1866 2068 1962 1693 1734 1575 1550 1487 1583 1434 1286 1117 1104 1115 1025
0 0 0 0 0 0 0 0 0 0 0 33 815 1066 1488 1875 1862 1642 1573 1649 1774 1552 1672 1773 1654 1627 1449 1324 1128 955 1004 857
0 0 0 0 0 0 0 0 0 0 0 0 0 11 441 1273 1711 1712 1770 1539 1631 1569 1227 1416 1545 1652 1363 1184 987 1021 868 794
0 0 0 0 0 0 0 0 0 0 0 0 0 0 180 528 1125 1560 1764 1669 1332 1221 1229 818 789 1217 1104 759 644 503 367 435
0 0 0 0 0 0 0 0 0 0 0 0 0 0 0 324 573 919 1404 1596 1291 1020 908 258 25 241 511 681 381 116 93 58
0 0 0 0 0 0 0 0 0 0 0 0 0 0 0 0 47 540 766 1206 1094 1199 842 410 233 422 14 465 615 344 307 134
0 0 0 0 0 0 0 0 0 0 0 0 0 0 0 0 0 12 636 701 840 911 1017 614 497 462 473 576 511 462 520 450
0 0 0 0 0 0 0 0 0 0 0 0 0 0 0 0 0 0 239 705 590 580 760 755 678 666 753 559 490 457 450 326
0 0 0 0 0 0 0 0 0 0 0 1 1 0 0 0 0 1 40 515 722 684 712 548 584 680 704 646 597 508 422 509

GFSFLT2_con_mucape_114.txt.gz
CAPE
2344 2135 1883 1667 1653 1783 1943 2057 2049 1985 1991 2115 2212 2069 1927 1870 1877 1934 2013 2178 2379 2334 2131 2098 1964 1760 1446 1429 1249 1069 977 772
2179 2093 2017 1982 1616 1664 1897 2057 2116 2063 1980 2060 2147 2053 1904 1821 1749 1833 1956 2032 2352 2260 2055 2092 1746 1314 1227 1277 1247 1113 967 747
2301 2252 2419 2324 2212 1730 1729 1990 2095 2107 2007 1992 2080 2046 1974 1886 1726 1688 1832 1931 2078 2129 2112 1946 1774 1430 1097 1113 1148 1101 1022 882
2606 2628 2593 2135 1923 1861 1542 1734 1975 2095 2071 1991 2040 2123 2031 1963 1867 1732 1713 1769 1841 1954 2077 1850 1769 1541 1275 1038 1036 998 927 882
2822 2606 2544 1978 1800 1583 1319 1416 1595 1805 1991 2328 2339 2542 2065 2072 1961 1835 1638 1662 1663 1793 1987 1831 1691 1542 1317 1056 964 921 877 884
2118 2473 2506 2236 2265 2022 1574 1150 1252 1332 1552 1781 2099 2111 1997 2036 1965 1869 1708 1480 1493 1632 1831 1770 1643 1527 1332 1165 1013 877 854 843
2173 2169 2109 2245 2255 2392 2458 2328 1583 1417 1126 1335 1546 1682 1756 1992 2058 1910 1748 1527 1493 1429 1570 1650 1603 1501 1412 1315 1203 1188 1102 942
863 1079 424 895 1642 1566 1796 1793 1805 1934 2036 1505 1387 1371 1443 1577 2059 2219 2031 1788 1536 1515 1429 1451 1462 1452 1318 1330 1294 1252 1217 1121
0 0 0 1 650 1105 1245 1255 1453 1767 1739 1781 1665 1561 1527 1392 1385 1863 2211 2091 1988 1742 1603 1518 1420 1390 1254 1192 1334 1215 1236 1138
0 0 0 0 0 220 410 1018 829 894 1170 1244 1418 1665 1668 1542 1569 1405 1640 2172 2070 2019 1898 1687 1526 1464 1332 1387 1286 1348 1276 1100
0 0 0 0 0 0 0 459 791 709 760 814 755 794 1091 1407 1342 1203 1466 1595 1955 1999 1853 1831 1413 1381 1410 1518 1510 1344 1114 1026
0 0 0 0 0 0 0 0 13 553 577 725 817 818 777 1105 1206 1195 1193 1082 1199 1510 1773 1754 1548 1265 1214 1406 1523 1294 1162 1070
0 0 0 0 0 0 0 0 0 0 0 2 587 749 964 843 852 1133 1332 1083 1094 1075 1071 1323 1443 1337 1323 1443 1416 1287 1072 999
0 0 0 0 0 0 0 0 0 0 0 0 0 0 306 752 733 515 874 1253 1317 1028 946 812 894 927 932 969 888 974 913 898
0 0 0 0 0 0 0 0 0 0 0 0 0 0 0 0 43 450 245 573 1169 1307 1006 805 601 603 790 690 269 393 625 734
5 0 0 0 0 0 0 0 0 0 0 0 0 0 0 0 0 0 29 119 297 979 1106 924 819 525 263 121 0 79 205 155
0 0 0 0 0 0 0 0 0 0 0 0 0 0 0 0 0 0 0 13 122 697 1049 1009 803 561 383 223 36 15 118 56
0 0 0 0 0 0 0 0 0 0 0 0 0 0 0 0 0 0 0 0 0 253 817 753 596 479 462 431 170 200 49 25
0 0 0 0 0 0 0 0 0 0 0 0 0 0 0 0 0 0 0 0 1 26 458 647 575 359 242 230 224 148 111 132
0 0 0 0 0 0 0 0 0 0 0 0 0 0 0 1 0 0 1 0 0 4 231 442 546 378 213 149 131 174 263 309

GFSFLT2_con_mucape_117.txt.gz
CAPE
2293 2284 1996 1812 1824 1910 1963 1855 1763 1751 1816 1944 2039 1942 1903 1898 1892 1924 2038 2449 2316 2588 2213 1918 1807 1631 1445 1185 942 946 903 625
2234 2262 2006 1826 1667 1723 1831 1972 1917 1810 1790 1913 1995 1889 1754 1755 1759 1811 1901 2049 2155 2305 2116 1906 1873 1681 1360 1200 1100 939 865 626
2109 2169 2044 1925 1913 1866 1740 1872 1968 1965 1902 1914 1993 1902 1751 1640 1607 1606 1767 1784 2031 2281 2158 1999 1781 1400 1104 1027 1050 976 874 694
2215 2131 2077 2194 2233 2147 2051 1741 1951 2023 2017 1940 1923 1996 1769 1708 1626 1564 1619 1718 1787 2223 2227 2060 1876 1442 1118 938 946 945 918 836
2383 2335 2387 2500 2253 1929 1854 1815 1798 2030 2657 2378 1927 2544 2563 1844 1700 1671 1590 1595 1630 1827 2049 2116 1872 1596 1323 1047 864 829 833 826
2541 2653 2736 2558 2199 1911 1700 1434 1483 1645 2172 2649 2870 2615 2668 2742 2245 1859 1640 1540 1544 1562 1672 1900 1938 1646 1455 1207 929 773 754 781
2192 2451 2453 2398 2229 2241 2201 2352 1348 1230 1372 1598 2073 2534 2703 2623 2466 2252 1735 1639 1549 1425 1446 1517 1868 1711 1481 1250 1033 885 729 706
2152 2204 1733 2003 2126 1980 1756 1850 1895 1973 1495 1494 1274 1535 1536 1542 1678 1929 1681 1587 1581 1489 1300 1272 1409 1623 1488 1320 1132 1013 839 800
1748 1568 1066 938 1095 1784 1460 1332 1308 1330 1491 1466 1342 1252 1262 1266 1344 1548 1640 1622 1575 1524 1475 1368 1261 1352 1422 1301 1160 1073 1029 1022
746 676 313 4 138 958 1141 866 829 751 618 953 1187 1308 1492 1418 1305 1265 1282 1513 1311 1375 1454 1576 1477 1408 1327 1261 1213 986 1024 997
6 0 0 0 0 0 0 0 198 497 485 442 369 433 490 697 1291 1351 1281 1107 1003 1138 1257 1742 1401 1498 1572 1405 1262 1086 992 1090
0 0 0 0 0 0 0 0 0 0 86 404 404 388 356 299 300 487 829 862 700 534 869 1086 845 914 1189 1362 1193 1142 1286 1170
0 0 0 0 0 0 0 0 0 0 0 0 0 63 290 289 313 361 389 387 673 811 745 469 531 535 982 885 807 786 922 1036
0 0 0 0 0 0 0 0 0 0 0 0 0 0 0 0 0 260 487 403 404 625 903 994 769 686 537 485 417 339 536 608
0 0 0 0 0 0 0 0 0 0 0 0 0 0 0 0 0 0 0 134 269 179 738 1094 891 780 787 544 255 204 127 7
5 0 0 0 0 0 0 0 0 0 0 0 0 0 0 0 0 0 0 0 0 0 47 364 809 737 626 595 422 222 79 108
13 18 1 0 0 0 0 0 0 0 0 0 0 0 0 0 0 0 0 0 0 0 0 1 418 567 588 445 447 364 193 125
0 0 0 0 0 0 0 0 0 0 0 0 0 0 0 0 0 0 0 0 0 0 0 12 141 256 520 544 225 214 219 137
0 0 0 0 0 0 0 0 0 0 0 0 0 0 0 0 0 0 0 0 0 0 0 1 35 137 376 537 452 246 192 129
0 0 0 0 0 0 0 0 0 0 0 0 0 0 0 0 0 0 0 0 0 0 3 0 9 103 232 406 375 271 185 191

GFSFLT2_con_mucape_120.txt.gz
CAPE
1953 1825 1997 2061 2054 1845 1719 1813 1757 1708 1741 1876 1989 1989 1923 1798 1903 2123 2344 2361 2377 2168 2021 1869 1628 1438 1242 979 797 786 793 616
2042 1942 2017 1925 1921 2049 1954 1812 1785 1742 1729 1798 1890 1864 1834 1799 1711 1826 2008 2289 2328 2347 2167 1908 1667 1520 1334 1059 854 769 757 592
2020 2054 2068 1945 1802 1690 1876 1966 1942 1831 1754 1766 1881 1856 1734 1722 1708 1692 1809 2072 2132 2189 2158 1841 1624 1515 1280 1107 1003 867 761 579
1981 2056 2147 1988 1904 1913 1892 1791 1862 1932 1837 1805 1868 1941 1722 1671 1628 1615 1698 1702 1872 1969 2088 1933 1662 1497 1259 1005 958 914 812 661
2140 2104 2121 2075 2137 2155 2012 1960 1898 2329 2476 1856 2163 2592 2708 1815 1670 1533 1527 1568 1559 1659 2070 2062 1856 1639 1189 880 845 870 862 823
1805 2270 2283 2355 2494 2290 1891 1777 1646 1724 2517 2103 1989 2677 2505 2536 2406 1536 1587 1331 1464 1489 1650 2001 1915 1862 1495 1105 861 786 788 798
1164 2255 2481 2768 2690 2353 2050 2005 1550 1444 1757 1692 1935 1880 1895 2093 2262 2590 2019 2142 1433 1295 1318 1383 1668 1770 1770 1379 1090 881 727 712
1005 2290 2420 2469 2707 2360 2202 2067 1919 1821 1267 1119 1212 1523 1697 1892 1773 1959 2109 2224 2012 1630 1327 1298 1507 1813 1657 1579 1291 1032 842 749
658 1963 2116 2083 2071 1812 1865 1625 1525 1919 1986 1567 1217 1118 972 935 1272 1164 1409 1650 1331 1443 1362 1418 1290 1489 2105 1802 1373 1221 995 826
542 1286 1257 1281 1238 1232 1449 1489 1376 1243 1114 1003 1009 959 1104 1112 1084 1095 1166 1314 1239 1086 1094 1149 1103 1011 1113 1581 1555 1211 1131 971
370 982 1078 705 514 776 925 904 889 692 460 322 308 325 325 347 443 915 1234 1229 1237 1057 952 955 1008 994 1120 1121 934 1188 1010 1046
49 536 726 643 284 10 0 0 0 0 0 0 11 42 81 148 109 99 130 196 364 994 680 728 615 680 955 611 730 867 673 598
1 251 536 182 33 0 0 0 0 0 0 0 0 0 0 0 32 133 119 38 82 153 417 496 276 206 341 195 267 223 176 485
0 0 1 0 0 7 0 0 0 0 0 0 0 0 0 0 0 0 0 0 25 86 188 483 555 768 293 197 44 2 3 245
52 74 44 31 22 7 0 0 0 0 0 0 0 0 0 0 0 0 0 0 0 0 7 113 393 530 710 493 232 237 99 98
132 124 149 5 9 0 0 0 0 0 0 0 0 0 0 0 0 0 0 0 0 0 0 0 0 98 429 518 616 298 256 117
61 88 68 0 0 0 0 0 0 0 0 0 0 0 0 0 0 0 0 0 0 0 0 0 0 1 21 173 243 731 302 150
69 42 5 5 0 0 0 0 0 0 0 0 0 0 0 0 0 0 0 0 0 0 0 0 0 2 16 35 220 45 140 244
2 22 16 0 0 0 0 0 0 0 0 0 0 0 0 0 0 0 0 0 0 0 0 0 0 0 1 18 30 87 136 176
0 0 0 0 0 0 0 0 0 0 0 0 0 0 0 0 0 0 0 0 0 0 0 2 2 0 2 1 39 30 94 154

GFSFLT2_con_mucape_123.txt.gz
CAPE
2257 2519 2388 2038 2009 1973 1964 1963 1827 1755 1770 1844 2044 2168 2278 2173 2168 2348 2505 2499 2421 2324 2255 1694 1414 1206 968 816 734 789 1218 1452
2165 2121 2595 2729 2643 1904 1790 1831 1855 1784 1760 1805 1830 1888 1905 1973 2005 2178 2349 2283 2184 2133 2037 1626 1504 1324 1132 1039 806 711 1193 1328
2321 2142 2209 2467 2497 2335 2049 1880 1845 1839 1808 1760 1922 2235 2195 2107 1834 1828 2035 2114 2146 2158 1925 1874 1766 1579 1414 1195 936 1344 1448 1209
2275 2290 2280 2247 2060 2247 2430 2463 2539 2562 2426 2390 2332 2182 2167 1973 1814 1625 1601 1742 2074 2204 2235 2069 1773 2006 1751 1209 1502 1464 1464 1315
29 2418 2334 2337 2335 2415 2256 2262 2259 2237 2311 2134 1999 2107 2188 1885 1727 1955 2153 1621 2109 2011 2316 2352 2300 2299 1986 1773 1561 1540 1425 1352
0 1799 2412 2403 2415 2456 2147 2049 1956 1936 1887 2047 2229 2171 2054 2081 1785 1838 1526 1737 2009 2131 2069 2255 2402 2310 2302 1925 1696 1457 1337 1297
0 880 2543 2497 2460 2467 2424 2126 2089 1917 1905 2158 1953 1952 1984 1821 1771 1817 1886 1502 1410 1520 1831 1744 2002 1936 2074 2204 1831 1650 1514 1468
0 224 2063 2345 2061 2207 2070 2010 1880 1980 1863 1698 1869 1614 1348 1473 1712 1761 1804 1653 1644 1644 1362 1386 1429 1506 2208 1713 2087 1791 1587 1554
0 33 237 1462 1586 1556 1692 1633 1804 1795 1502 1492 1169 1271 1116 985 1143 1301 1581 1562 1456 1593 1469 1495 1479 1492 1412 1322 1560 1574 1646 1539
0 41 213 1091 1128 829 1252 1236 1224 1435 1269 1223 1221 1126 952 855 714 706 743 1051 1598 1711 1131 1568 1425 1502 1520 1386 1195 1218 1094 1536
1 6 94 573 739 679 657 667 730 779 785 802 637 509 491 579 600 594 594 903 1148 1081 1390 1153 1155 1181 1325 1299 1324 1112 1012 922
3 41 155 505 574 669 487 381 312 263 113 18 10 0 0 3 26 80 154 176 392 544 817 791 1097 1237 1061 1016 1151 800 1184 828
4 20 60 263 449 491 311 179 50 0 0 0 0 0 0 0 0 0 0 0 52 56 40 233 613 790 708 353 173 256 329 357
2 8 11 20 44 181 167 80 39 0 0 0 0 0 0 0 0 0 0 0 0 0 0 13 439 315 439 375 123 232 199 232
2 10 17 35 80 134 156 95 22 12 0 0 0 0 0 0 0 0 0 0 0 0 4 7 4 250 545 308 63 5 218 76
11 20 26 44 57 105 109 31 16 0 0 0 0 0 0 0 0 0 0 0 0 0 0 0 7 12 64 447 773 216 254 161
2 2 9 34 98 86 130 26 0 0 0 0 0 0 0 0 0 0 0 0 0 0 0 0 0 1 13 25 349 494 225 44
2 1 1 1 13 34 65 0 0 0 0 0 0 0 0 0 0 0 0 0 0 0 0 0 0 0 0 14 5 111 57 39
0 0 0 2 2 8 2 0 0 0 0 0 0 0 0 0 0 0 0 0 0 0 0 0 0 0 0 0 5 12 108 36
0 0 0 0 0 0 0 0 0 0 0 0 0 0 0 0 0 0 0 0 0 0 0 0 0 0 0 3 0 4 33 123

GFSFLT2_con_mucape_126.txt.gz
CAPE
3360 3395 2890 2067 2212 2186 2089 1984 1760 1770 1791 1998 2320 2475 2499 2416 2357 2456 2742 2931 2898 2710 2456 2240 1960 1430 1081 724 687 863 1397 1280
3409 3507 3580 3536 3391 2174 2042 2016 1931 1772 1726 1757 1869 2069 2206 2230 2178 2262 2494 2618 2627 2629 2504 2327 1825 1398 1114 788 676 674 1212 1248
1108 3192 3452 3619 3629 3243 2197 1843 1887 1894 1838 1745 1958 2239 2115 2271 2200 2043 2259 2367 2302 2283 2301 2126 1611 1410 1269 1038 896 1352 1307 1328
0 357 2695 3531 3269 3279 3347 3270 2970 2855 2784 2888 2828 2755 2640 2102 1856 1835 1960 2147 2156 2072 2079 1960 1724 2082 1941 1330 1728 1341 1539 1381
0 0 1074 3169 3183 3359 3445 3286 3241 3263 3272 3086 2760 2610 2651 2576 2427 2429 2370 1541 2252 1938 2417 2564 2424 2251 1847 1797 1593 1655 1576 1444
0 41 242 2109 3215 3430 3423 3319 3194 3177 3009 2927 2933 2919 2752 2816 2412 2151 2248 2205 2213 2368 2389 2420 2432 2373 2343 2040 2056 1760 1428 1313
0 8 406 1530 2862 3365 3558 3460 3144 3008 2908 2855 2501 2691 2856 2557 2315 2366 2172 2259 2045 2117 2385 2136 2275 2232 2323 2187 2300 2118 1764 1407
0 0 0 437 1623 2589 2892 3086 2834 2419 2113 2378 2395 2302 2469 2361 2375 2112 2204 2305 2327 2118 1718 2102 2139 1937 2171 2328 2207 2184 2048 1891
0 0 0 0 1461 1938 2373 1915 1671 1751 1911 1517 1534 1884 1824 1645 2231 2136 2126 2230 2065 2089 1904 2115 1890 1777 1778 2081 2282 2323 1967 1791
0 0 0 0 1 966 1513 1451 1217 1422 1601 1253 972 1233 1671 1611 1287 1215 1239 983 1036 2130 2061 2076 1799 1743 1534 1474 1794 2222 2240 2018
0 0 1 1 155 553 738 853 942 930 981 897 983 921 806 843 748 822 772 852 847 852 1229 1763 1821 1568 1605 1413 1430 1594 2228 1767
1 0 0 2 4 418 620 491 500 484 597 599 682 652 485 200 43 15 25 52 102 260 860 872 1058 1270 1115 975 902 1233 1630 1185
1 4 4 8 0 11 512 572 544 483 321 249 140 14 0 0 0 2 1 0 3 4 27 195 879 1203 778 649 762 1090 406 625
0 1 3 4 17 19 20 66 240 139 158 102 33 0 0 0 0 0 0 0 11 9 10 6 12 747 826 542 382 297 347 216
0 0 0 3 8 20 25 19 95 116 70 85 4 0 0 0 0 0 0 0 0 0 0 9 10 8 546 970 470 328 367 121
0 0 0 0 3 1 4 9 1 38 52 14 0 0 0 0 0 0 0 0 0 0 0 0 0 14 13 285 914 686 310 293
3 4 0 0 0 0 7 0 1 2 2 23 0 0 0 0 0 0 0 0 0 0 0 0 0 0 16 14 10 482 769 832
0 0 0 0 0 1 2 5 10 0 3 3 0 0 0 0 0 0 0 0 0 0 0 0 0 0 0 0 16 10 88 333
0 0 0 0 0 0 0 0 2 2 2 0 10 0 0 0 0 0 0 0 0 0 0 0 0 1 0 0 0 1 5 24
0 0 0 0 0 0 0 0 0 0 0 0 0 0 0 0 0 0 0 0 0 0 0 0 0 0 1 1 0 0 0 33